Time,TemperatureF,DewpointF,PressureIn,WindDirection,WindDirectionDegrees,WindSpeedMPH,WindSpeedGustMPH,Humidity,HourlyPrecipIn,Conditions,Clouds,dailyrainin,SoftwareType,DateUTC
2013-05-23 00:00:00,44.6,43.5,29.90,NNW,338,1.0,6.0,96,0.00,,OVC004,0.00,VWS V12.07,2013-05-23 05:00:00,
2013-05-23 00:10:00,44.5,43.4,29.90,NW,315,1.0,3.0,96,0.00,,OVC004,0.00,VWS V12.07,2013-05-23 05:10:00,
2013-05-23 00:20:00,44.3,43.0,29.91,North,0,2.0,11.0,95,0.00,,OVC004,0.00,VWS V12.07,2013-05-23 05:20:00,
2013-05-23 00:30:00,44.2,42.6,29.91,North,0,3.0,10.0,94,0.00,,OVC004,0.00,VWS V12.07,2013-05-23 05:30:00,
2013-05-23 00:40:00,44.1,42.2,29.91,North,0,3.0,13.0,93,0.00,,OVC004,0.00,VWS V12.07,2013-05-23 05:40:00,
2013-05-23 00:50:00,43.8,42.5,29.92,North,0,3.0,10.0,95,0.00,,OVC004,0.00,VWS V12.07,2013-05-23 05:50:00,
2013-05-23 01:00:00,43.3,40.6,29.92,North,0,3.0,12.0,90,0.00,,OVC004,0.00,VWS V12.07,2013-05-23 06:00:00,
2013-05-23 01:10:00,42.6,39.3,29.92,North,0,4.0,16.0,88,0.00,,OVC004,0.00,VWS V12.07,2013-05-23 06:10:00,
2013-05-23 01:20:00,42.2,39.2,29.93,North,0,3.0,11.0,89,0.00,,OVC004,0.00,VWS V12.07,2013-05-23 06:20:00,
2013-05-23 01:30:00,41.5,38.5,29.93,NNW,338,3.0,11.0,89,0.00,,OVC004,0.00,VWS V12.07,2013-05-23 06:30:00,
2013-05-23 01:40:00,40.9,38.2,29.93,NNE,22,3.0,15.0,90,0.00,,OVC004,0.00,VWS V12.07,2013-05-23 06:40:00,
2013-05-23 01:50:00,40.1,37.1,29.94,North,0,4.0,15.0,89,0.00,,OVC004,0.00,VWS V12.07,2013-05-23 06:50:00,
2013-05-23 02:00:00,39.5,36.5,29.94,North,0,4.0,15.0,89,0.00,,OVC004,0.00,VWS V12.07,2013-05-23 07:00:00,
2013-05-23 02:10:00,39.2,36.5,29.94,North,0,3.0,13.0,90,0.00,,OVC004,0.00,VWS V12.07,2013-05-23 07:10:00,
2013-05-23 02:20:00,38.9,36.2,29.95,North,0,4.0,18.0,90,0.00,,OVC004,0.00,VWS V12.07,2013-05-23 07:20:00,
2013-05-23 02:30:00,38.8,36.1,29.95,North,0,3.0,12.0,90,0.00,,OVC004,0.00,VWS V12.07,2013-05-23 07:30:00,
2013-05-23 02:40:00,38.5,35.8,29.95,North,0,3.0,7.0,90,0.00,,OVC004,0.00,VWS V12.07,2013-05-23 07:40:00,
2013-05-23 02:50:00,38.0,35.0,29.97,North,0,4.0,13.0,89,0.00,,OVC004,0.00,VWS V12.07,2013-05-23 07:50:00,
2013-05-23 03:00:00,38.0,35.0,29.97,North,0,4.0,13.0,89,0.00,,OVC004,0.00,VWS V12.07,2013-05-23 08:00:00,
2013-05-23 03:10:00,37.9,35.0,29.97,North,0,3.0,11.0,89,0.00,,OVC004,0.00,VWS V12.07,2013-05-23 08:10:00,
2013-05-23 03:20:00,37.8,34.9,29.97,North,0,3.0,12.0,89,0.00,,OVC004,0.00,VWS V12.07,2013-05-23 08:20:00,
2013-05-23 03:30:00,37.8,34.9,29.97,North,0,2.0,11.0,89,0.00,,OVC004,0.00,VWS V12.07,2013-05-23 08:30:00,
2013-05-23 03:40:00,37.6,34.4,29.97,North,0,4.0,20.0,88,0.00,,OVC004,0.00,VWS V12.07,2013-05-23 08:40:00,
2013-05-23 03:50:00,37.5,34.3,29.97,North,0,2.0,9.0,88,0.00,,OVC004,0.00,VWS V12.07,2013-05-23 08:50:00,
2013-05-23 04:00:00,37.5,34.0,29.98,North,0,3.0,13.0,87,0.00,,OVC004,0.00,VWS V12.07,2013-05-23 09:00:00,
2013-05-23 04:10:00,37.3,33.5,29.98,North,0,3.0,12.0,86,0.00,,OVC004,0.00,VWS V12.07,2013-05-23 09:10:00,
2013-05-23 04:20:00,37.2,33.4,29.99,North,0,3.0,11.0,86,0.00,,OVC004,0.00,VWS V12.07,2013-05-23 09:20:00,
2013-05-23 04:30:00,37.0,32.9,30.00,North,0,3.0,11.0,85,0.00,,OVC004,0.00,VWS V12.07,2013-05-23 09:30:00,
2013-05-23 04:40:00,37.0,32.9,30.00,North,0,3.0,15.0,85,0.00,,OVC004,0.00,VWS V12.07,2013-05-23 09:40:00,
2013-05-23 04:50:00,36.9,32.5,30.00,North,0,4.0,13.0,84,0.00,,OVC004,0.00,VWS V12.07,2013-05-23 09:50:00,
2013-05-23 05:00:00,36.8,32.7,30.01,North,0,2.0,13.0,85,0.00,,OVC004,0.00,VWS V12.07,2013-05-23 10:00:00,
2013-05-23 05:10:00,36.8,32.4,30.01,North,0,3.0,10.0,84,0.00,,OVC004,0.00,VWS V12.07,2013-05-23 10:10:00,
2013-05-23 05:20:00,36.6,31.9,30.02,North,0,4.0,15.0,83,0.00,,OVC004,0.00,VWS V12.07,2013-05-23 10:20:00,
2013-05-23 05:30:00,36.3,31.6,30.03,North,0,4.0,19.0,83,0.00,,OVC004,0.00,VWS V12.07,2013-05-23 10:30:00,
2013-05-23 05:40:00,36.2,31.5,30.03,North,0,4.0,14.0,83,0.00,,OVC004,0.00,VWS V12.07,2013-05-23 10:40:00,
2013-05-23 05:50:00,36.3,31.6,30.04,North,0,5.0,13.0,83,0.00,,OVC004,0.00,VWS V12.07,2013-05-23 10:50:00,
2013-05-23 06:00:00,36.3,31.6,30.05,North,0,3.0,10.0,83,0.00,,OVC004,0.00,VWS V12.07,2013-05-23 11:00:00,
2013-05-23 06:10:00,36.2,31.5,30.05,North,0,4.0,15.0,83,0.00,,OVC004,0.00,VWS V12.07,2013-05-23 11:10:00,
2013-05-23 06:20:00,36.2,31.8,30.06,North,0,3.0,12.0,84,0.00,,OVC004,0.00,VWS V12.07,2013-05-23 11:20:00,
2013-05-23 06:30:00,36.2,31.8,30.07,North,0,3.0,17.0,84,0.00,,OVC004,0.00,VWS V12.07,2013-05-23 11:30:00,
2013-05-23 06:40:00,36.2,31.8,30.07,North,0,2.0,7.0,84,0.00,,OVC004,0.00,VWS V12.07,2013-05-23 11:40:00,
2013-05-23 06:50:00,36.2,31.8,30.07,North,0,3.0,12.0,84,0.00,,OVC004,0.00,VWS V12.07,2013-05-23 11:50:00,
2013-05-23 07:00:00,36.2,31.5,30.08,North,0,2.0,11.0,83,0.00,,OVC004,0.00,VWS V12.07,2013-05-23 12:00:00,
2013-05-23 07:04:00,45.1,45.1,29.62,NE,45,1.0,5.0,100,0.00,,OVC004,0.00,VWS V12.07,2013-05-23 12:04:00,
2013-05-23 07:09:00,47.1,47.1,29.80,North,0,1.0,15.0,100,0.00,,OVC004,0.00,VWS V12.07,2013-05-23 12:09:00,
2013-05-23 07:10:00,47.7,47.2,29.83,NNE,22,3.0,15.0,98,0.00,,OVC004,0.00,VWS V12.07,2013-05-23 12:10:00,
2013-05-23 07:14:00,36.2,31.8,30.07,North,0,2.0,20.0,84,0.00,,OVC004,0.00,VWS V12.07,2013-05-23 12:14:00,
2013-05-23 07:15:00,36.2,31.5,30.09,NE,49,2.0,0.0,83,0.00,,OVC004,0.00,VWS V12.07,2013-05-23 12:15:00,
2013-05-23 07:16:00,36.2,31.5,30.09,North,358,3.0,0.0,83,0.00,,OVC004,0.00,VWS V12.07,2013-05-23 12:16:00,
2013-05-23 07:20:00,36.2,31.2,30.09,NE,40,2.0,11.0,82,0.00,,OVC016,0.00,VWS V12.07,2013-05-23 12:20:00,
2013-05-23 07:21:00,36.2,31.2,30.09,NNE,29,2.0,11.0,82,0.00,,OVC016,0.00,VWS V12.07,2013-05-23 12:21:00,
2013-05-23 07:23:00,36.0,30.8,30.09,NNW,348,5.0,11.0,81,0.00,,OVC016,0.00,VWS V12.07,2013-05-23 12:23:00,
2013-05-23 07:25:00,36.0,30.8,30.09,North,8,4.0,11.0,81,0.00,,OVC016,0.00,VWS V12.07,2013-05-23 12:25:00,
2013-05-23 07:26:00,36.0,30.8,30.09,NNW,330,3.0,11.0,81,0.00,,OVC016,0.00,VWS V12.07,2013-05-23 12:26:00,
2013-05-23 07:28:00,35.9,30.6,30.09,North,1,2.0,13.0,81,0.00,,OVC016,0.00,VWS V12.07,2013-05-23 12:28:00,
2013-05-23 07:30:00,35.9,30.6,30.10,WNW,290,1.0,14.0,81,0.00,,OVC016,0.00,VWS V12.07,2013-05-23 12:30:00,
2013-05-23 07:31:00,35.9,30.6,30.10,NE,41,2.0,14.0,81,0.00,,OVC016,0.00,VWS V12.07,2013-05-23 12:31:00,
2013-05-23 07:33:00,35.9,30.6,30.10,North,358,1.0,14.0,81,0.00,,OVC016,0.00,VWS V12.07,2013-05-23 12:33:00,
2013-05-23 07:36:00,35.9,30.6,30.10,North,358,1.0,14.0,81,0.00,,OVC016,0.00,VWS V12.07,2013-05-23 12:36:00,
2013-05-23 07:37:00,35.9,30.6,30.10,North,0,6.0,14.0,81,0.00,,OVC016,0.00,VWS V12.07,2013-05-23 12:37:00,
2013-05-23 07:38:00,35.9,30.3,30.10,North,6,2.0,14.0,80,0.00,,OVC016,0.00,VWS V12.07,2013-05-23 12:38:00,
2013-05-23 07:41:00,36.0,30.8,30.10,NNE,28,1.0,14.0,81,0.00,,OVC016,0.00,VWS V12.07,2013-05-23 12:41:00,
2013-05-23 07:42:00,36.0,30.8,30.10,NNE,28,0.0,14.0,81,0.00,,OVC016,0.00,VWS V12.07,2013-05-23 12:42:00,
2013-05-23 07:43:00,36.0,30.8,30.10,NNW,328,1.0,10.0,81,0.00,,OVC016,0.00,VWS V12.07,2013-05-23 12:43:00,
2013-05-23 07:47:00,36.2,30.6,30.11,NNW,345,3.0,8.0,80,0.00,,OVC016,0.00,VWS V12.07,2013-05-23 12:47:00,
2013-05-23 07:48:00,36.2,30.6,30.11,NNE,13,4.0,10.0,80,0.00,,OVC016,0.00,VWS V12.07,2013-05-23 12:48:00,
2013-05-23 07:52:00,36.3,30.7,30.11,NNW,336,2.0,15.0,80,0.00,,OVC016,0.00,VWS V12.07,2013-05-23 12:52:00,
2013-05-23 07:53:00,36.5,30.9,30.11,NNE,27,3.0,15.0,80,0.00,,OVC016,0.00,VWS V12.07,2013-05-23 12:53:00,
2013-05-23 07:54:00,36.5,30.9,30.11,North,351,2.0,15.0,80,0.00,,OVC016,0.00,VWS V12.07,2013-05-23 12:54:00,
2013-05-23 07:57:00,36.6,30.4,30.11,NNW,328,5.0,7.0,78,0.00,,OVC016,0.00,VWS V12.07,2013-05-23 12:57:00,
2013-05-23 07:58:00,36.6,30.4,30.11,NNW,334,2.0,7.0,78,0.00,,OVC016,0.00,VWS V12.07,2013-05-23 12:58:00,
2013-05-23 07:59:00,36.6,30.4,30.11,NNW,334,2.0,7.0,78,0.00,,OVC016,0.00,VWS V12.07,2013-05-23 12:59:00,
2013-05-23 08:02:00,36.5,30.3,30.11,NW,325,3.0,11.0,78,0.00,,OVC016,0.00,VWS V12.07,2013-05-23 13:02:00,
2013-05-23 08:03:00,36.5,30.0,30.11,North,6,5.0,11.0,77,0.00,,OVC016,0.00,VWS V12.07,2013-05-23 13:03:00,
2013-05-23 08:04:00,36.3,29.8,30.11,ENE,58,16.0,16.0,77,0.00,,OVC016,0.00,VWS V12.07,2013-05-23 13:04:00,
2013-05-23 08:05:00,36.3,29.8,30.11,NW,312,4.0,10.0,77,0.00,,OVC016,0.00,VWS V12.07,2013-05-23 13:05:00,
2013-05-23 08:08:00,36.3,30.1,30.11,NNW,333,3.0,10.0,78,0.00,,OVC016,0.00,VWS V12.07,2013-05-23 13:08:00,
2013-05-23 08:09:00,36.5,30.3,30.11,North,2,2.0,10.0,78,0.00,,OVC016,0.00,VWS V12.07,2013-05-23 13:09:00,
2013-05-23 08:11:00,36.6,30.4,30.11,North,358,3.0,10.0,78,0.00,,OVC016,0.00,VWS V12.07,2013-05-23 13:11:00,
2013-05-23 08:13:00,37.0,30.1,30.12,North,0,0.0,13.0,76,0.00,,OVC016,0.00,VWS V12.07,2013-05-23 13:13:00,
2013-05-23 08:14:00,37.2,30.4,30.12,SW,233,3.0,13.0,76,0.00,,OVC016,0.00,VWS V12.07,2013-05-23 13:14:00,
2013-05-23 08:15:00,37.3,30.8,30.12,North,0,1.0,3.0,77,0.00,,OVC016,0.00,VWS V12.07,2013-05-23 13:15:00,
2013-05-23 08:16:00,37.3,30.8,30.12,NNE,25,0.0,5.0,77,0.00,,OVC016,0.00,VWS V12.07,2013-05-23 13:16:00,
2013-05-23 08:18:00,37.2,30.0,30.12,North,4,0.0,13.0,75,0.00,,OVC016,0.00,VWS V12.07,2013-05-23 13:18:00,
2013-05-23 08:19:00,37.2,30.0,30.12,North,11,5.0,13.0,75,0.00,,OVC016,0.00,VWS V12.07,2013-05-23 13:19:00,
2013-05-23 08:20:00,37.0,29.8,30.12,North,7,1.0,13.0,75,0.00,,OVC016,0.00,VWS V12.07,2013-05-23 13:20:00,
2013-05-23 08:21:00,37.0,29.8,30.12,North,356,1.0,13.0,75,0.00,,OVC016,0.00,VWS V12.07,2013-05-23 13:21:00,
2013-05-23 08:23:00,37.0,29.8,30.12,North,0,5.0,13.0,75,0.00,,OVC016,0.00,VWS V12.07,2013-05-23 13:23:00,
2013-05-23 08:24:00,37.0,30.1,30.12,North,354,4.0,13.0,76,0.00,,OVC016,0.00,VWS V12.07,2013-05-23 13:24:00,
2013-05-23 08:25:00,37.2,30.4,30.12,NNW,348,4.0,6.0,76,0.00,,OVC016,0.00,VWS V12.07,2013-05-23 13:25:00,
2013-05-23 08:26:00,37.5,30.3,30.12,NNE,30,2.0,12.0,75,0.00,,OVC016,0.00,VWS V12.07,2013-05-23 13:26:00,
2013-05-23 08:29:00,37.8,30.6,30.12,North,6,3.0,12.0,75,0.00,,OVC016,0.00,VWS V12.07,2013-05-23 13:29:00,
2013-05-23 08:30:00,37.9,30.7,30.12,North,6,6.0,12.0,75,0.00,,OVC016,0.00,VWS V12.07,2013-05-23 13:30:00,
2013-05-23 08:32:00,38.2,30.3,30.12,NNE,13,3.0,12.0,73,0.00,,OVC016,0.00,VWS V12.07,2013-05-23 13:32:00,
2013-05-23 08:34:00,38.2,29.6,30.12,North,358,6.0,12.0,71,0.00,,OVC016,0.00,VWS V12.07,2013-05-23 13:34:00,
2013-05-23 08:35:00,38.2,29.6,30.12,North,9,3.0,15.0,71,0.00,,OVC016,0.00,VWS V12.07,2013-05-23 13:35:00,
2013-05-23 08:36:00,38.2,29.6,30.12,NW,316,2.0,15.0,71,0.00,,OVC016,0.00,VWS V12.07,2013-05-23 13:36:00,
2013-05-23 08:38:00,38.2,30.0,30.12,ENE,58,6.0,15.0,72,0.00,,OVC016,0.00,VWS V12.07,2013-05-23 13:38:00,
2013-05-23 08:39:00,38.2,30.0,30.12,NE,44,1.0,15.0,72,0.00,,BKN018,0.00,VWS V12.07,2013-05-23 13:39:00,
2013-05-23 08:40:00,38.2,30.3,30.12,SSE,155,2.0,15.0,73,0.00,,BKN018,0.00,VWS V12.07,2013-05-23 13:40:00,
2013-05-23 08:41:00,38.3,30.4,30.12,NNE,26,6.0,15.0,73,0.00,,BKN018,0.00,VWS V12.07,2013-05-23 13:41:00,
2013-05-23 08:43:00,38.6,30.4,30.12,NNW,335,2.0,15.0,72,0.00,,BKN018,0.00,VWS V12.07,2013-05-23 13:43:00,
2013-05-23 08:44:00,38.8,30.6,30.13,WNW,289,8.0,15.0,72,0.00,,BKN018,0.00,VWS V12.07,2013-05-23 13:44:00,
2013-05-23 08:45:00,38.8,30.2,30.13,WSW,258,6.0,10.0,71,0.00,,BKN018,0.00,VWS V12.07,2013-05-23 13:45:00,
2013-05-23 08:46:00,38.6,29.7,30.13,North,8,7.0,10.0,70,0.00,,BKN018,0.00,VWS V12.07,2013-05-23 13:46:00,
2013-05-23 08:48:00,38.5,29.6,30.13,NE,40,6.0,10.0,70,0.00,,BKN018,0.00,VWS V12.07,2013-05-23 13:48:00,
2013-05-23 08:49:00,38.5,29.9,30.13,NE,39,2.0,10.0,71,0.00,,BKN018,0.00,VWS V12.07,2013-05-23 13:49:00,
2013-05-23 08:51:00,38.6,30.4,30.13,NNE,15,7.0,10.0,72,0.00,,SCT018,0.00,VWS V12.07,2013-05-23 13:51:00,
2013-05-23 08:53:00,38.8,29.9,30.13,NNE,25,5.0,10.0,70,0.00,,SCT018,0.00,VWS V12.07,2013-05-23 13:53:00,
2013-05-23 08:54:00,38.9,30.3,30.13,NNE,27,3.0,3.0,71,0.00,,SCT018,0.00,VWS V12.07,2013-05-23 13:54:00,
2013-05-23 08:56:00,39.2,30.6,30.13,NNW,340,3.0,4.0,71,0.00,,SCT018,0.00,VWS V12.07,2013-05-23 13:56:00,
2013-05-23 08:57:00,39.3,30.7,30.13,NW,310,1.0,5.0,71,0.00,,SCT018,0.00,VWS V12.07,2013-05-23 13:57:00,
2013-05-23 08:58:00,39.6,31.0,30.13,NW,309,1.0,5.0,71,0.00,,SCT018,0.00,VWS V12.07,2013-05-23 13:58:00,
2013-05-23 09:00:00,39.8,30.1,30.13,NNE,25,3.0,13.0,68,0.00,,SCT018,0.00,VWS V12.07,2013-05-23 14:00:00,
2013-05-23 09:01:00,39.9,30.2,30.13,NNW,347,2.0,13.0,68,0.00,,SCT018,0.00,VWS V12.07,2013-05-23 14:01:00,
2013-05-23 09:03:00,40.1,30.4,30.13,WNW,303,0.0,13.0,68,0.00,,SCT018,0.00,VWS V12.07,2013-05-23 14:03:00,
2013-05-23 09:05:00,40.2,30.5,30.13,North,11,0.0,5.0,68,0.00,,SCT018,0.00,VWS V12.07,2013-05-23 14:05:00,
2013-05-23 09:06:00,40.2,30.9,30.13,NNE,12,6.0,6.0,69,0.00,,SCT018,0.00,VWS V12.07,2013-05-23 14:06:00,
2013-05-23 09:08:00,40.3,30.6,30.13,North,0,2.0,8.0,68,0.00,,SCT018,0.00,VWS V12.07,2013-05-23 14:08:00,
2013-05-23 09:10:00,40.2,30.1,30.13,NE,56,4.0,11.0,67,0.00,,SCT018,0.00,VWS V12.07,2013-05-23 14:10:00,
2013-05-23 09:11:00,40.2,30.5,30.13,NW,311,4.0,11.0,68,0.00,,SCT018,0.00,VWS V12.07,2013-05-23 14:11:00,
2013-05-23 09:12:00,40.2,30.5,30.13,NNW,347,3.0,11.0,68,0.00,,SCT018,0.00,VWS V12.07,2013-05-23 14:12:00,
2013-05-23 09:13:00,40.1,30.0,30.13,NNW,328,2.0,11.0,67,0.00,,SCT018,0.00,VWS V12.07,2013-05-23 14:13:00,
2013-05-23 09:14:00,40.1,30.0,30.14,NE,35,5.0,14.0,67,0.00,,SCT018,0.00,VWS V12.07,2013-05-23 14:14:00,
2013-05-23 09:16:00,39.9,29.5,30.14,North,354,3.0,11.0,66,0.00,,SCT018,0.00,VWS V12.07,2013-05-23 14:16:00,
2013-05-23 09:17:00,39.9,29.5,30.14,NNE,13,4.0,11.0,66,0.00,,SCT018,0.00,VWS V12.07,2013-05-23 14:17:00,
2013-05-23 09:18:00,39.9,29.9,30.14,North,351,1.0,11.0,67,0.00,,SCT018,0.00,VWS V12.07,2013-05-23 14:18:00,
2013-05-23 09:19:00,39.9,29.5,30.14,NW,319,2.0,14.0,66,0.00,,SCT018,0.00,VWS V12.07,2013-05-23 14:19:00,
2013-05-23 09:21:00,39.9,29.5,30.14,NE,37,1.0,14.0,66,0.00,,SCT018,0.00,VWS V12.07,2013-05-23 14:21:00,
2013-05-23 09:22:00,40.1,30.0,30.14,NE,34,2.0,14.0,67,0.00,,SCT018,0.00,VWS V12.07,2013-05-23 14:22:00,
2013-05-23 09:23:00,40.1,29.7,30.14,NNE,31,3.0,14.0,66,0.00,,SCT018,0.00,VWS V12.07,2013-05-23 14:23:00,
2013-05-23 09:24:00,40.1,29.7,30.14,NNE,27,1.0,14.0,66,0.00,,SCT018,0.00,VWS V12.07,2013-05-23 14:24:00,
2013-05-23 09:26:00,40.1,29.7,30.14,NE,53,5.0,12.0,66,0.00,,SCT018,0.00,VWS V12.07,2013-05-23 14:26:00,
2013-05-23 09:28:00,40.1,30.0,30.14,North,0,5.0,12.0,67,0.00,,SCT018,0.00,VWS V12.07,2013-05-23 14:28:00,
2013-05-23 09:29:00,40.1,30.0,30.14,North,4,4.0,12.0,67,0.00,,SCT018,0.00,VWS V12.07,2013-05-23 14:29:00,
2013-05-23 09:32:00,40.3,30.6,30.14,North,0,4.0,12.0,68,0.00,,SCT018,0.00,VWS V12.07,2013-05-23 14:32:00,
2013-05-23 09:33:00,40.5,30.4,30.14,WNW,302,4.0,12.0,67,0.00,,SCT018,0.00,VWS V12.07,2013-05-23 14:33:00,
2013-05-23 09:34:00,40.5,30.8,30.14,NNE,21,3.0,12.0,68,0.00,,SCT018,0.00,VWS V12.07,2013-05-23 14:34:00,
2013-05-23 09:37:00,40.8,31.1,30.14,NNW,343,1.0,7.0,68,0.00,,SCT020,0.00,VWS V12.07,2013-05-23 14:37:00,
2013-05-23 09:38:00,40.8,31.1,30.14,North,357,4.0,12.0,68,0.00,,SCT018,0.00,VWS V12.07,2013-05-23 14:38:00,
2013-05-23 09:39:00,40.8,30.7,30.14,SSE,155,0.0,12.0,67,0.00,,SCT018,0.00,VWS V12.07,2013-05-23 14:39:00,
2013-05-23 09:40:00,40.8,30.7,30.14,SSE,155,0.0,12.0,67,0.00,,SCT020,0.00,VWS V12.07,2013-05-23 14:40:00,
2013-05-23 09:42:00,40.8,30.7,30.14,WSW,244,0.0,12.0,67,0.00,,SCT020,0.00,VWS V12.07,2013-05-23 14:42:00,
2013-05-23 09:43:00,40.8,30.7,30.15,North,358,7.0,13.0,67,0.00,,SCT020,0.00,VWS V12.07,2013-05-23 14:43:00,
2013-05-23 09:44:00,40.8,31.1,30.15,NNE,15,2.0,0.0,68,0.00,,SCT020,0.00,VWS V12.07,2013-05-23 14:44:00,
2013-05-23 09:45:00,40.8,31.1,30.15,NE,52,3.0,5.0,68,0.00,,SCT020,0.00,VWS V12.07,2013-05-23 14:45:00,
2013-05-23 09:47:00,40.9,31.5,30.15,NNW,331,1.0,6.0,69,0.00,,SCT020,0.00,VWS V12.07,2013-05-23 14:47:00,
2013-05-23 09:49:00,41.2,31.8,30.15,NW,311,6.0,6.0,69,0.00,,SCT020,0.00,VWS V12.07,2013-05-23 14:49:00,
2013-05-23 09:51:00,41.2,31.5,30.15,North,5,1.0,10.0,68,0.00,,SCT020,0.00,VWS V12.07,2013-05-23 14:51:00,
2013-05-23 09:52:00,41.5,32.1,30.15,North,8,0.0,10.0,69,0.00,,SCT020,0.00,VWS V12.07,2013-05-23 14:52:00,
2013-05-23 09:54:00,41.6,32.2,30.15,North,354,3.0,3.0,69,0.00,,SCT020,0.00,VWS V12.07,2013-05-23 14:54:00,
2013-05-23 09:55:00,41.6,32.2,30.15,North,354,1.0,3.0,69,0.00,,SCT020,0.00,VWS V12.07,2013-05-23 14:55:00,
2013-05-23 09:56:00,41.9,31.8,30.15,SSW,200,2.0,3.0,67,0.00,,SCT020,0.00,VWS V12.07,2013-05-23 14:56:00,
2013-05-23 09:57:00,42.1,32.0,30.15,NW,323,2.0,3.0,67,0.00,,SCT020,0.00,VWS V12.07,2013-05-23 14:57:00,
2013-05-23 10:00:00,41.9,31.8,30.15,NNE,24,3.0,7.0,67,0.00,,SCT022,0.00,VWS V12.07,2013-05-23 15:00:00,
2013-05-23 10:01:00,42.1,31.6,30.15,NW,316,4.0,7.0,66,0.00,,SCT022,0.00,VWS V12.07,2013-05-23 15:01:00,
2013-05-23 10:03:00,42.1,32.0,30.15,NNW,330,0.0,7.0,67,0.00,,SCT022,0.00,VWS V12.07,2013-05-23 15:03:00,
2013-05-23 10:05:00,41.8,30.9,30.15,NW,310,3.0,4.0,65,0.00,,SCT022,0.00,VWS V12.07,2013-05-23 15:05:00,
2013-05-23 10:06:00,41.6,31.1,30.15,NW,315,0.0,4.0,66,0.00,,SCT022,0.00,VWS V12.07,2013-05-23 15:06:00,
2013-05-23 10:08:00,41.3,31.2,30.15,West,276,2.0,5.0,67,0.00,,SCT022,0.00,VWS V12.07,2013-05-23 15:08:00,
2013-05-23 10:10:00,41.2,30.7,30.15,NW,320,0.0,5.0,66,0.00,,SCT022,0.00,VWS V12.07,2013-05-23 15:10:00,
2013-05-23 10:11:00,41.1,30.6,30.15,ENE,74,2.0,5.0,66,0.00,,SCT022,0.00,VWS V12.07,2013-05-23 15:11:00,
2013-05-23 10:13:00,41.2,31.1,30.16,WNW,294,1.0,10.0,67,0.00,,SCT022,0.00,VWS V12.07,2013-05-23 15:13:00,
2013-05-23 10:15:00,41.3,31.5,30.16,NE,49,4.0,4.0,68,0.00,,SCT022,0.00,VWS V12.07,2013-05-23 15:15:00,
2013-05-23 10:16:00,41.5,30.6,30.16,WNW,295,4.0,7.0,65,0.00,,SCT022,0.00,VWS V12.07,2013-05-23 15:16:00,
2013-05-23 10:17:00,41.5,30.6,30.16,NNW,345,6.0,7.0,65,0.00,,SCT022,0.00,VWS V12.07,2013-05-23 15:17:00,
2013-05-23 10:18:00,41.6,31.1,30.16,NW,309,3.0,7.0,66,0.00,,SCT022,0.00,VWS V12.07,2013-05-23 15:18:00,
2013-05-23 10:21:00,41.5,31.0,30.16,NW,324,1.0,9.0,66,0.00,,SCT022,0.00,VWS V12.07,2013-05-23 15:21:00,
2013-05-23 10:22:00,41.5,31.0,30.16,NNW,337,8.0,9.0,66,0.00,,SCT022,0.00,VWS V12.07,2013-05-23 15:22:00,
2013-05-23 10:24:00,41.3,31.2,30.16,North,0,4.0,12.0,67,0.00,,SCT022,0.00,VWS V12.07,2013-05-23 15:24:00,
2013-05-23 10:26:00,41.3,30.4,30.16,NNE,21,9.0,11.0,65,0.00,,SCT022,0.00,VWS V12.07,2013-05-23 15:26:00,
2013-05-23 10:27:00,41.3,30.1,30.16,NNW,330,0.0,11.0,64,0.00,,SCT022,0.00,VWS V12.07,2013-05-23 15:27:00,
2013-05-23 10:29:00,41.2,31.1,30.16,NW,320,3.0,11.0,67,0.00,,SCT022,0.00,VWS V12.07,2013-05-23 15:29:00,
2013-05-23 10:31:00,41.2,30.3,30.16,West,274,2.0,11.0,65,0.00,,SCT022,0.00,VWS V12.07,2013-05-23 15:31:00,
2013-05-23 10:32:00,41.1,30.2,30.16,North,0,2.0,11.0,65,0.00,,SCT022,0.00,VWS V12.07,2013-05-23 15:32:00,
2013-05-23 10:33:00,41.1,30.6,30.16,NW,326,1.0,11.0,66,0.00,,SCT022,0.00,VWS V12.07,2013-05-23 15:33:00,
2013-05-23 10:34:00,41.2,31.1,30.16,WNW,282,0.0,11.0,67,0.00,,SCT022,0.00,VWS V12.07,2013-05-23 15:34:00,
2013-05-23 10:37:00,41.2,31.1,30.16,NNW,340,1.0,5.0,67,0.00,,SCT022,0.00,VWS V12.07,2013-05-23 15:37:00,
2013-05-23 10:38:00,41.2,30.7,30.16,SW,233,7.0,7.0,66,0.00,,SCT022,0.00,VWS V12.07,2013-05-23 15:38:00,
2013-05-23 10:39:00,41.3,30.8,30.16,North,349,1.0,7.0,66,0.00,,SCT022,0.00,VWS V12.07,2013-05-23 15:39:00,
2013-05-23 10:43:00,41.8,31.3,30.16,NNE,24,4.0,9.0,66,0.00,,SCT022,0.00,VWS V12.07,2013-05-23 15:43:00,
2013-05-23 10:44:00,41.9,30.2,30.16,NNW,339,4.0,9.0,63,0.00,,SCT022,0.00,VWS V12.07,2013-05-23 15:44:00,
2013-05-23 10:46:00,41.8,29.8,30.16,NNE,27,3.0,6.0,62,0.00,,SCT022,0.00,VWS V12.07,2013-05-23 15:46:00,
2013-05-23 10:48:00,41.9,29.9,30.16,NNE,20,1.0,6.0,62,0.00,,SCT022,0.00,VWS V12.07,2013-05-23 15:48:00,
2013-05-23 10:49:00,42.1,30.4,30.16,NNW,336,1.0,6.0,63,0.00,,SCT022,0.00,VWS V12.07,2013-05-23 15:49:00,
2013-05-23 10:51:00,42.2,30.1,30.16,NE,47,6.0,12.0,62,0.00,,SCT022,0.00,VWS V12.07,2013-05-23 15:51:00,
2013-05-23 10:53:00,42.2,30.5,30.16,NNE,23,9.0,12.0,63,0.00,,SCT022,0.00,VWS V12.07,2013-05-23 15:53:00,
2013-05-23 10:54:00,42.1,30.0,30.16,NNE,19,2.0,12.0,62,0.00,,CLR,0.00,VWS V12.07,2013-05-23 15:54:00,
2013-05-23 10:55:00,42.1,30.4,30.16,NE,56,3.0,11.0,63,0.00,,CLR,0.00,VWS V12.07,2013-05-23 15:55:00,
2013-05-23 10:56:00,42.2,30.9,30.16,North,349,2.0,11.0,64,0.00,,CLR,0.00,VWS V12.07,2013-05-23 15:56:00,
2013-05-23 10:58:00,42.2,30.9,30.16,WNW,301,5.0,11.0,64,0.00,,CLR,0.00,VWS V12.07,2013-05-23 15:58:00,
2013-05-23 10:59:00,42.3,30.6,30.17,NW,305,0.0,11.0,63,0.00,,CLR,0.00,VWS V12.07,2013-05-23 15:59:00,
2013-05-23 11:00:00,42.5,30.8,30.17,North,7,2.0,11.0,63,0.00,,CLR,0.00,VWS V12.07,2013-05-23 16:00:00,
2013-05-23 11:02:00,42.8,31.5,30.17,North,0,6.0,14.0,64,0.00,,CLR,0.00,VWS V12.07,2013-05-23 16:02:00,
2013-05-23 11:03:00,42.6,30.1,30.17,NE,42,1.0,14.0,61,0.00,,CLR,0.00,VWS V12.07,2013-05-23 16:03:00,
2013-05-23 11:04:00,42.6,30.9,30.17,North,0,5.0,14.0,63,0.00,,CLR,0.00,VWS V12.07,2013-05-23 16:04:00,
2013-05-23 11:05:00,42.8,31.5,30.17,NNW,340,0.0,14.0,64,0.00,,CLR,0.00,VWS V12.07,2013-05-23 16:05:00,
2013-05-23 11:07:00,42.8,31.5,30.17,NNW,338,4.0,14.0,64,0.00,,CLR,0.00,VWS V12.07,2013-05-23 16:07:00,
2013-05-23 11:08:00,42.6,30.5,30.17,NW,304,2.0,14.0,62,0.00,,CLR,0.00,VWS V12.07,2013-05-23 16:08:00,
2013-05-23 11:10:00,42.5,30.8,30.17,NNE,13,2.0,11.0,63,0.00,,SCT022,0.00,VWS V12.07,2013-05-23 16:10:00,
2013-05-23 11:11:00,42.3,31.0,30.17,ENE,72,1.0,11.0,64,0.00,,SCT022,0.00,VWS V12.07,2013-05-23 16:11:00,
2013-05-23 11:12:00,42.5,31.6,30.17,North,355,2.0,11.0,65,0.00,,SCT022,0.00,VWS V12.07,2013-05-23 16:12:00,
2013-05-23 11:13:00,42.5,30.8,30.17,NW,309,1.0,11.0,63,0.00,,SCT022,0.00,VWS V12.07,2013-05-23 16:13:00,
2013-05-23 11:15:00,42.6,31.3,30.17,West,271,1.0,11.0,64,0.00,,SCT022,0.00,VWS V12.07,2013-05-23 16:15:00,
2013-05-23 11:16:00,42.6,30.5,30.17,WNW,297,2.0,11.0,62,0.00,,SCT022,0.00,VWS V12.07,2013-05-23 16:16:00,
2013-05-23 11:17:00,42.6,30.5,30.17,West,271,4.0,11.0,62,0.00,,SCT022,0.00,VWS V12.07,2013-05-23 16:17:00,
2013-05-23 11:18:00,42.6,30.5,30.17,West,274,4.0,5.0,62,0.00,,SCT022,0.00,VWS V12.07,2013-05-23 16:18:00,
2013-05-23 11:21:00,42.9,30.8,30.17,North,349,0.0,11.0,62,0.00,,CLR,0.00,VWS V12.07,2013-05-23 16:21:00,
2013-05-23 11:22:00,42.9,30.8,30.17,North,353,1.0,11.0,62,0.00,,CLR,0.00,VWS V12.07,2013-05-23 16:22:00,
2013-05-23 11:23:00,43.1,31.4,30.17,North,353,1.0,11.0,63,0.00,,CLR,0.00,VWS V12.07,2013-05-23 16:23:00,
2013-05-23 11:27:00,43.3,30.8,30.17,NE,41,5.0,6.0,61,0.00,,CLR,0.00,VWS V12.07,2013-05-23 16:27:00,
2013-05-23 11:28:00,43.3,30.8,30.17,North,358,2.0,6.0,61,0.00,,CLR,0.00,VWS V12.07,2013-05-23 16:28:00,
2013-05-23 11:29:00,43.3,30.4,30.17,NNW,330,7.0,7.0,60,0.00,,CLR,0.00,VWS V12.07,2013-05-23 16:29:00,
2013-05-23 11:32:00,43.3,31.2,30.17,NNE,33,13.0,13.0,62,0.00,,CLR,0.00,VWS V12.07,2013-05-23 16:32:00,
2013-05-23 11:33:00,43.3,30.0,30.17,NE,46,2.0,13.0,59,0.00,,CLR,0.00,VWS V12.07,2013-05-23 16:33:00,
2013-05-23 11:34:00,43.2,29.9,30.17,North,0,2.0,13.0,59,0.00,,CLR,0.00,VWS V12.07,2013-05-23 16:34:00,
2013-05-23 11:38:00,43.1,30.2,30.17,NE,44,10.0,11.0,60,0.00,,CLR,0.00,VWS V12.07,2013-05-23 16:38:00,
2013-05-23 11:39:00,42.8,30.3,30.17,East,91,4.0,13.0,61,0.00,,CLR,0.00,VWS V12.07,2013-05-23 16:39:00,
2013-05-23 11:43:00,43.5,32.2,30.17,NE,41,3.0,13.0,64,0.00,,CLR,0.00,VWS V12.07,2013-05-23 16:43:00,
2013-05-23 11:44:00,43.6,31.0,30.18,North,358,2.0,13.0,61,0.00,,CLR,0.00,VWS V12.07,2013-05-23 16:44:00,
2013-05-23 11:48:00,42.9,31.6,30.18,NNW,346,2.0,11.0,64,0.00,,CLR,0.00,VWS V12.07,2013-05-23 16:48:00,
2013-05-23 11:49:00,42.9,30.4,30.18,NW,325,1.0,11.0,61,0.00,,CLR,0.00,VWS V12.07,2013-05-23 16:49:00,
2013-05-23 11:50:00,42.9,31.6,30.18,North,0,4.0,11.0,64,0.00,,CLR,0.00,VWS V12.07,2013-05-23 16:50:00,
2013-05-23 11:53:00,43.6,31.9,30.18,North,1,6.0,11.0,63,0.00,,CLR,0.00,VWS V12.07,2013-05-23 16:53:00,
2013-05-23 11:54:00,43.6,31.0,30.18,North,0,6.0,11.0,61,0.00,,CLR,0.00,VWS V12.07,2013-05-23 16:54:00,
2013-05-23 11:55:00,43.8,30.8,30.18,ENE,71,5.0,5.0,60,0.00,,CLR,0.00,VWS V12.07,2013-05-23 16:55:00,
2013-05-23 11:59:00,43.6,30.2,30.18,NE,41,4.0,11.0,59,0.00,,CLR,0.00,VWS V12.07,2013-05-23 16:59:00,
2013-05-23 12:00:00,43.6,30.2,30.18,NNE,30,4.0,11.0,59,0.00,,CLR,0.00,VWS V12.07,2013-05-23 17:00:00,
2013-05-23 12:04:00,43.8,30.8,30.18,NNW,329,0.0,11.0,60,0.00,,CLR,0.00,VWS V12.07,2013-05-23 17:04:00,
2013-05-23 12:05:00,44.2,31.6,30.18,North,356,3.0,11.0,61,0.00,,CLR,0.00,VWS V12.07,2013-05-23 17:05:00,
2013-05-23 12:06:00,44.3,31.7,30.18,NW,323,4.0,11.0,61,0.00,,CLR,0.00,VWS V12.07,2013-05-23 17:06:00,
2013-05-23 12:09:00,43.6,30.2,30.18,West,262,2.0,11.0,59,0.00,,CLR,0.00,VWS V12.07,2013-05-23 17:09:00,
2013-05-23 12:10:00,43.8,30.8,30.18,West,274,2.0,11.0,60,0.00,,CLR,0.00,VWS V12.07,2013-05-23 17:10:00,
2013-05-23 12:11:00,43.8,30.0,30.18,NNW,343,3.0,11.0,58,0.00,,CLR,0.00,VWS V12.07,2013-05-23 17:11:00,
2013-05-23 12:14:00,43.9,30.5,30.19,NE,36,4.0,10.0,59,0.00,,CLR,0.00,VWS V12.07,2013-05-23 17:14:00,
2013-05-23 12:15:00,43.8,30.8,30.19,NNE,17,1.0,7.0,60,0.00,,CLR,0.00,VWS V12.07,2013-05-23 17:15:00,
2013-05-23 12:16:00,43.8,30.8,30.19,WNW,290,4.0,7.0,60,0.00,,CLR,0.00,VWS V12.07,2013-05-23 17:16:00,
2013-05-23 12:17:00,44.1,31.9,30.19,North,356,0.0,7.0,62,0.00,,CLR,0.00,VWS V12.07,2013-05-23 17:17:00,
2013-05-23 12:19:00,44.5,30.7,30.19,NNW,339,2.0,7.0,58,0.00,,CLR,0.00,VWS V12.07,2013-05-23 17:19:00,
2013-05-23 12:20:00,44.5,30.7,30.19,North,350,3.0,7.0,58,0.00,,CLR,0.00,VWS V12.07,2013-05-23 17:20:00,
2013-05-23 12:21:00,44.5,31.1,30.19,NNW,330,0.0,7.0,59,0.00,,CLR,0.00,VWS V12.07,2013-05-23 17:21:00,
2013-05-23 12:22:00,44.6,31.2,30.19,NNE,17,3.0,7.0,59,0.00,,CLR,0.00,VWS V12.07,2013-05-23 17:22:00,
2013-05-23 12:25:00,44.6,31.6,30.19,NNW,344,2.0,5.0,60,0.00,,CLR,0.00,VWS V12.07,2013-05-23 17:25:00,
2013-05-23 12:26:00,44.8,31.4,30.19,North,3,1.0,5.0,59,0.00,,CLR,0.00,VWS V12.07,2013-05-23 17:26:00,
2013-05-23 12:27:00,44.8,31.4,30.19,NNE,23,3.0,5.0,59,0.00,,CLR,0.00,VWS V12.07,2013-05-23 17:27:00,
2013-05-23 12:30:00,45.2,31.7,30.18,NW,317,3.0,5.0,59,0.00,,CLR,0.00,VWS V12.07,2013-05-23 17:30:00,
2013-05-23 12:31:00,45.4,31.1,30.18,WNW,290,0.0,5.0,57,0.00,,CLR,0.00,VWS V12.07,2013-05-23 17:31:00,
2013-05-23 12:32:00,46.0,32.9,30.18,WNW,293,4.0,5.0,60,0.00,,CLR,0.00,VWS V12.07,2013-05-23 17:32:00,
2013-05-23 12:35:00,46.2,32.2,30.18,North,356,4.0,6.0,58,0.00,,CLR,0.00,VWS V12.07,2013-05-23 17:35:00,
2013-05-23 12:36:00,46.1,32.2,30.18,NNE,23,3.0,6.0,58,0.00,,CLR,0.00,VWS V12.07,2013-05-23 17:36:00,
2013-05-23 12:37:00,45.8,31.9,30.18,NE,42,3.0,6.0,58,0.00,,CLR,0.00,VWS V12.07,2013-05-23 17:37:00,
2013-05-23 12:40:00,45.5,32.4,30.18,WSW,254,3.0,7.0,60,0.00,,CLR,0.00,VWS V12.07,2013-05-23 17:40:00,
2013-05-23 12:41:00,45.5,31.6,30.18,NW,309,1.0,7.0,58,0.00,,CLR,0.00,VWS V12.07,2013-05-23 17:41:00,
2013-05-23 12:42:00,46.0,32.1,30.18,NNE,23,7.0,10.0,58,0.00,,CLR,0.00,VWS V12.07,2013-05-23 17:42:00,
2013-05-23 12:43:00,46.0,32.1,30.18,NNE,20,5.0,10.0,58,0.00,,CLR,0.00,VWS V12.07,2013-05-23 17:43:00,
2013-05-23 12:46:00,46.0,32.1,30.18,NW,309,1.0,8.0,58,0.00,,CLR,0.00,VWS V12.07,2013-05-23 17:46:00,
2013-05-23 12:47:00,46.0,32.9,30.18,NNE,31,4.0,8.0,60,0.00,,CLR,0.00,VWS V12.07,2013-05-23 17:47:00,
2013-05-23 12:48:00,45.8,32.3,30.18,ENE,75,7.0,11.0,59,0.00,,CLR,0.00,VWS V12.07,2013-05-23 17:48:00,
2013-05-23 12:52:00,45.1,32.9,30.18,NNE,21,7.0,11.0,62,0.00,,CLR,0.00,VWS V12.07,2013-05-23 17:52:00,
2013-05-23 12:53:00,45.1,31.6,30.18,West,272,4.0,11.0,59,0.00,,CLR,0.00,VWS V12.07,2013-05-23 17:53:00,
2013-05-23 12:57:00,45.4,32.3,30.18,North,6,4.0,7.0,60,0.00,,CLR,0.00,VWS V12.07,2013-05-23 17:57:00,
2013-05-23 12:58:00,45.4,31.9,30.18,NW,320,3.0,7.0,59,0.00,,CLR,0.00,VWS V12.07,2013-05-23 17:58:00,
2013-05-23 12:59:00,45.2,31.3,30.19,North,0,2.0,12.0,58,0.00,,CLR,0.00,VWS V12.07,2013-05-23 17:59:00,
2013-05-23 13:02:00,45.7,32.6,30.19,NNW,328,0.0,12.0,60,0.00,,CLR,0.00,VWS V12.07,2013-05-23 18:02:00,
2013-05-23 13:03:00,46.1,33.0,30.19,West,264,2.0,12.0,60,0.00,,CLR,0.00,VWS V12.07,2013-05-23 18:03:00,
2013-05-23 13:04:00,46.2,31.4,30.19,NW,320,5.0,12.0,56,0.00,,CLR,0.00,VWS V12.07,2013-05-23 18:04:00,
2013-05-23 13:07:00,46.7,31.4,30.19,West,278,5.0,10.0,55,0.00,,CLR,0.00,VWS V12.07,2013-05-23 18:07:00,
2013-05-23 13:09:00,46.5,30.8,30.19,West,269,1.0,10.0,54,0.00,,CLR,0.00,VWS V12.07,2013-05-23 18:09:00,
2013-05-23 13:10:00,46.5,31.2,30.19,North,357,7.0,10.0,55,0.00,,CLR,0.00,VWS V12.07,2013-05-23 18:10:00,
2013-05-23 13:13:00,46.0,31.6,30.19,North,358,1.0,14.0,57,0.00,,CLR,0.00,VWS V12.07,2013-05-23 18:13:00,
2013-05-23 13:14:00,46.0,31.6,30.19,North,357,1.0,14.0,57,0.00,,CLR,0.00,VWS V12.07,2013-05-23 18:14:00,
2013-05-23 13:15:00,46.0,31.6,30.19,SSW,200,2.0,4.0,57,0.00,,CLR,0.00,VWS V12.07,2013-05-23 18:15:00,
2013-05-23 13:16:00,46.0,31.6,30.19,NNE,20,3.0,5.0,57,0.00,,CLR,0.00,VWS V12.07,2013-05-23 18:16:00,
2013-05-23 13:18:00,46.4,32.9,30.19,NW,307,3.0,8.0,59,0.00,,CLR,0.00,VWS V12.07,2013-05-23 18:18:00,
2013-05-23 13:19:00,46.7,33.2,30.19,NW,314,2.0,8.0,59,0.00,,CLR,0.00,VWS V12.07,2013-05-23 18:19:00,
2013-05-23 13:20:00,47.0,32.6,30.19,NW,323,2.0,8.0,57,0.00,,CLR,0.00,VWS V12.07,2013-05-23 18:20:00,
2013-05-23 13:21:00,47.0,31.7,30.19,North,8,6.0,9.0,55,0.00,,CLR,0.00,VWS V12.07,2013-05-23 18:21:00,
2013-05-23 13:23:00,46.4,30.7,30.19,North,358,1.0,11.0,54,0.00,,CLR,0.00,VWS V12.07,2013-05-23 18:23:00,
2013-05-23 13:24:00,46.2,31.8,30.19,NNE,28,2.0,11.0,57,0.00,,CLR,0.00,VWS V12.07,2013-05-23 18:24:00,
2013-05-23 13:25:00,46.2,30.9,30.19,NNE,23,1.0,2.0,55,0.00,,CLR,0.00,VWS V12.07,2013-05-23 18:25:00,
2013-05-23 13:27:00,46.7,31.4,30.19,NNE,27,4.0,5.0,55,0.00,,CLR,0.00,VWS V12.07,2013-05-23 18:27:00,
2013-05-23 13:28:00,46.8,31.5,30.19,NE,43,2.0,5.0,55,0.00,,CLR,0.00,VWS V12.07,2013-05-23 18:28:00,
2013-05-23 13:30:00,46.8,31.0,30.19,NNE,18,3.0,6.0,54,0.00,,CLR,0.00,VWS V12.07,2013-05-23 18:30:00,
2013-05-23 13:32:00,46.8,31.5,30.19,North,358,4.0,12.0,55,0.00,,CLR,0.00,VWS V12.07,2013-05-23 18:32:00,
2013-05-23 13:34:00,46.8,31.5,30.19,WNW,302,1.0,12.0,55,0.00,,CLR,0.00,VWS V12.07,2013-05-23 18:34:00,
2013-05-23 13:35:00,47.0,31.7,30.19,NE,35,3.0,4.0,55,0.00,,CLR,0.00,VWS V12.07,2013-05-23 18:35:00,
2013-05-23 13:36:00,47.0,31.7,30.19,North,358,2.0,4.0,55,0.00,,CLR,0.00,VWS V12.07,2013-05-23 18:36:00,
2013-05-23 13:38:00,47.1,31.3,30.19,West,271,0.0,9.0,54,0.00,,CLR,0.00,VWS V12.07,2013-05-23 18:38:00,
2013-05-23 13:40:00,47.0,31.2,30.19,NNE,30,4.0,9.0,54,0.00,,CLR,0.00,VWS V12.07,2013-05-23 18:40:00,
2013-05-23 13:41:00,47.0,32.1,30.19,ENE,64,3.0,9.0,56,0.00,,CLR,0.00,VWS V12.07,2013-05-23 18:41:00,
2013-05-23 13:42:00,46.7,31.4,30.19,NNE,29,6.0,11.0,55,0.00,,CLR,0.00,VWS V12.07,2013-05-23 18:42:00,
2013-05-23 13:43:00,46.5,32.5,30.19,North,0,2.0,11.0,58,0.00,,CLR,0.00,VWS V12.07,2013-05-23 18:43:00,
2013-05-23 13:45:00,47.0,33.0,30.19,North,358,2.0,3.0,58,0.00,,CLR,0.00,VWS V12.07,2013-05-23 18:45:00,
2013-05-23 13:46:00,46.8,32.8,30.19,North,358,3.0,6.0,58,0.00,,CLR,0.00,VWS V12.07,2013-05-23 18:46:00,
2013-05-23 13:47:00,47.1,32.7,30.19,NW,312,2.0,6.0,57,0.00,,CLR,0.00,VWS V12.07,2013-05-23 18:47:00,
2013-05-23 13:49:00,47.3,32.4,30.19,WNW,298,2.0,6.0,56,0.00,,CLR,0.00,VWS V12.07,2013-05-23 18:49:00,
2013-05-23 13:50:00,47.3,32.4,30.19,WNW,298,2.0,6.0,56,0.00,,CLR,0.00,VWS V12.07,2013-05-23 18:50:00,
2013-05-23 13:51:00,47.6,32.7,30.19,WNW,297,3.0,6.0,56,0.00,,CLR,0.00,VWS V12.07,2013-05-23 18:51:00,
2013-05-23 13:52:00,47.4,31.6,30.19,WNW,294,2.0,7.0,54,0.00,,CLR,0.00,VWS V12.07,2013-05-23 18:52:00,
2013-05-23 13:54:00,47.6,32.7,30.19,NE,51,3.0,7.0,56,0.00,,CLR,0.00,VWS V12.07,2013-05-23 18:54:00,
2013-05-23 13:55:00,47.7,32.8,30.19,North,0,3.0,11.0,56,0.00,,CLR,0.00,VWS V12.07,2013-05-23 18:55:00,
2013-05-23 13:56:00,47.6,32.7,30.19,West,274,2.0,11.0,56,0.00,,CLR,0.00,VWS V12.07,2013-05-23 18:56:00,
2013-05-23 13:57:00,47.7,33.2,30.19,West,262,5.0,11.0,57,0.00,,CLR,0.00,VWS V12.07,2013-05-23 18:57:00,
2013-05-23 13:58:00,47.7,32.8,30.19,WSW,250,5.0,11.0,56,0.00,,CLR,0.00,VWS V12.07,2013-05-23 18:58:00,
2013-05-23 14:00:00,47.9,33.0,30.19,NNW,343,3.0,11.0,56,0.00,,CLR,0.00,VWS V12.07,2013-05-23 19:00:00,
2013-05-23 14:02:00,48.3,32.9,30.19,North,0,0.0,11.0,55,0.00,,CLR,0.00,VWS V12.07,2013-05-23 19:02:00,
2013-05-23 14:04:00,48.5,32.2,30.19,NE,54,3.0,11.0,53,0.00,,CLR,0.00,VWS V12.07,2013-05-23 19:04:00,
2013-05-23 14:05:00,48.8,33.4,30.19,West,281,2.0,6.0,55,0.00,,CLR,0.00,VWS V12.07,2013-05-23 19:05:00,
2013-05-23 14:06:00,48.9,32.5,30.19,North,354,0.0,6.0,53,0.00,,CLR,0.00,VWS V12.07,2013-05-23 19:06:00,
2013-05-23 14:07:00,49.1,33.2,30.19,NNE,32,3.0,6.0,54,0.00,,CLR,0.00,VWS V12.07,2013-05-23 19:07:00,
2013-05-23 14:09:00,48.6,31.8,30.19,NNW,344,2.0,6.0,52,0.00,,CLR,0.00,VWS V12.07,2013-05-23 19:09:00,
2013-05-23 14:10:00,48.3,32.0,30.19,NW,310,2.0,6.0,53,0.00,,CLR,0.00,VWS V12.07,2013-05-23 19:10:00,
2013-05-23 14:12:00,48.2,32.3,30.19,NNW,335,3.0,6.0,54,0.00,,CLR,0.00,VWS V12.07,2013-05-23 19:12:00,
2013-05-23 14:13:00,48.0,31.2,30.19,NNE,25,6.0,10.0,52,0.00,,CLR,0.00,VWS V12.07,2013-05-23 19:13:00,
2013-05-23 14:15:00,47.9,32.1,30.19,North,6,8.0,10.0,54,0.00,,CLR,0.00,VWS V12.07,2013-05-23 19:15:00,
2013-05-23 14:16:00,47.6,31.3,30.19,NE,38,6.0,10.0,53,0.00,,CLR,0.00,VWS V12.07,2013-05-23 19:16:00,
2013-05-23 14:17:00,47.4,31.1,30.19,West,276,3.0,10.0,53,0.00,,CLR,0.00,VWS V12.07,2013-05-23 19:17:00,
2013-05-23 14:18:00,47.9,32.5,30.19,NE,39,1.0,10.0,55,0.00,,CLR,0.00,VWS V12.07,2013-05-23 19:18:00,
2013-05-23 14:20:00,48.5,32.6,30.19,NE,37,2.0,11.0,54,0.00,,CLR,0.00,VWS V12.07,2013-05-23 19:20:00,
2013-05-23 14:22:00,49.1,31.8,30.19,NW,326,1.0,11.0,51,0.00,,CLR,0.00,VWS V12.07,2013-05-23 19:22:00,
2013-05-23 14:23:00,49.2,31.4,30.19,NNW,328,4.0,11.0,50,0.00,,CLR,0.00,VWS V12.07,2013-05-23 19:23:00,
2013-05-23 14:25:00,48.9,30.1,30.19,North,358,3.0,7.0,48,0.00,,CLR,0.00,VWS V12.07,2013-05-23 19:25:00,
2013-05-23 14:27:00,48.8,30.5,30.19,NNW,338,1.0,7.0,49,0.00,,CLR,0.00,VWS V12.07,2013-05-23 19:27:00,
2013-05-23 14:28:00,48.3,30.5,30.19,ENE,72,2.0,7.0,50,0.00,,CLR,0.00,VWS V12.07,2013-05-23 19:28:00,
2013-05-23 14:29:00,48.6,31.3,30.20,NNW,338,0.0,7.0,51,0.00,,CLR,0.00,VWS V12.07,2013-05-23 19:29:00,
2013-05-23 14:30:00,48.8,31.0,30.20,NE,46,1.0,7.0,50,0.00,,CLR,0.00,VWS V12.07,2013-05-23 19:30:00,
2013-05-23 14:32:00,49.1,31.8,30.20,North,1,2.0,10.0,51,0.00,,CLR,0.00,VWS V12.07,2013-05-23 19:32:00,
2013-05-23 14:33:00,48.9,31.6,30.20,North,8,5.0,11.0,51,0.00,,CLR,0.00,VWS V12.07,2013-05-23 19:33:00,
2013-05-23 14:35:00,49.1,33.2,30.20,North,350,2.0,5.0,54,0.00,,CLR,0.00,VWS V12.07,2013-05-23 19:35:00,
2013-05-23 14:37:00,49.1,32.2,30.20,WSW,254,0.0,6.0,52,0.00,,CLR,0.00,VWS V12.07,2013-05-23 19:37:00,
2013-05-23 14:38:00,48.9,31.6,30.20,North,11,3.0,7.0,51,0.00,,CLR,0.00,VWS V12.07,2013-05-23 19:38:00,
2013-05-23 14:39:00,48.8,31.5,30.20,ENE,57,2.0,7.0,51,0.00,,CLR,0.00,VWS V12.07,2013-05-23 19:39:00,
2013-05-23 14:40:00,48.8,32.0,30.20,North,2,6.0,11.0,52,0.00,,CLR,0.00,VWS V12.07,2013-05-23 19:40:00,
2013-05-23 14:42:00,48.8,32.0,30.20,North,4,2.0,11.0,52,0.00,,CLR,0.00,VWS V12.07,2013-05-23 19:42:00,
2013-05-23 14:44:00,48.8,30.5,30.21,North,349,4.0,11.0,49,0.00,,CLR,0.00,VWS V12.07,2013-05-23 19:44:00,
2013-05-23 14:45:00,48.5,31.2,30.21,North,0,5.0,7.0,51,0.00,,CLR,0.00,VWS V12.07,2013-05-23 19:45:00,
2013-05-23 14:47:00,48.3,31.0,30.21,North,0,0.0,7.0,51,0.00,,CLR,0.00,VWS V12.07,2013-05-23 19:47:00,
2013-05-23 14:49:00,48.8,31.5,30.21,NW,316,3.0,7.0,51,0.00,,CLR,0.00,VWS V12.07,2013-05-23 19:49:00,
2013-05-23 14:51:00,48.6,31.3,30.21,NNE,17,0.0,9.0,51,0.00,,CLR,0.00,VWS V12.07,2013-05-23 19:51:00,
2013-05-23 14:52:00,48.8,32.9,30.21,NE,43,0.0,9.0,54,0.00,,CLR,0.00,VWS V12.07,2013-05-23 19:52:00,
2013-05-23 14:54:00,48.6,31.8,30.21,North,0,4.0,9.0,52,0.00,,CLR,0.00,VWS V12.07,2013-05-23 19:54:00,
2013-05-23 14:56:00,48.8,31.0,30.21,NW,322,3.0,5.0,50,0.00,,CLR,0.00,VWS V12.07,2013-05-23 19:56:00,
2013-05-23 14:57:00,48.8,31.5,30.21,NW,308,2.0,10.0,51,0.00,,CLR,0.00,VWS V12.07,2013-05-23 19:57:00,
2013-05-23 14:59:00,48.9,31.1,30.21,North,6,4.0,10.0,50,0.00,,CLR,0.00,VWS V12.07,2013-05-23 19:59:00,
2013-05-23 15:00:00,48.9,31.1,30.21,NE,37,4.0,11.0,50,0.00,,CLR,0.00,VWS V12.07,2013-05-23 20:00:00,
2013-05-23 15:01:00,48.8,31.5,30.21,North,354,3.0,11.0,51,0.00,,CLR,0.00,VWS V12.07,2013-05-23 20:01:00,
2013-05-23 15:02:00,48.8,32.0,30.21,North,358,3.0,11.0,52,0.00,,CLR,0.00,VWS V12.07,2013-05-23 20:02:00,
2013-05-23 15:05:00,48.5,30.7,30.21,WNW,285,3.0,3.0,50,0.00,,CLR,0.00,VWS V12.07,2013-05-23 20:05:00,
2013-05-23 15:06:00,48.8,31.0,30.21,WNW,303,0.0,4.0,50,0.00,,CLR,0.00,VWS V12.07,2013-05-23 20:06:00,
2013-05-23 15:07:00,48.9,31.1,30.21,North,0,4.0,4.0,50,0.00,,CLR,0.00,VWS V12.07,2013-05-23 20:07:00,
2013-05-23 15:08:00,49.2,30.9,30.21,WSW,243,5.0,5.0,49,0.00,,CLR,0.00,VWS V12.07,2013-05-23 20:08:00,
2013-05-23 15:10:00,49.2,30.4,30.21,NW,307,3.0,5.0,48,0.00,,CLR,0.00,VWS V12.07,2013-05-23 20:10:00,
2013-05-23 15:11:00,49.2,30.4,30.21,West,261,5.0,5.0,48,0.00,,CLR,0.00,VWS V12.07,2013-05-23 20:11:00,
2013-05-23 15:12:00,48.9,30.1,30.21,NE,39,2.0,9.0,48,0.00,,CLR,0.00,VWS V12.07,2013-05-23 20:12:00,
2013-05-23 15:14:00,48.9,31.1,30.21,NNE,13,2.0,9.0,50,0.00,,CLR,0.00,VWS V12.07,2013-05-23 20:14:00,
2013-05-23 15:16:00,48.9,30.1,30.21,NNE,20,6.0,9.0,48,0.00,,CLR,0.00,VWS V12.07,2013-05-23 20:16:00,
2013-05-23 15:17:00,48.9,30.6,30.21,North,358,6.0,9.0,49,0.00,,CLR,0.00,VWS V12.07,2013-05-23 20:17:00,
2013-05-23 15:18:00,48.9,30.6,30.21,NNE,30,4.0,9.0,49,0.00,,CLR,0.00,VWS V12.07,2013-05-23 20:18:00,
2013-05-23 15:19:00,48.8,30.5,30.21,NE,41,6.0,9.0,49,0.00,,CLR,0.00,VWS V12.07,2013-05-23 20:19:00,
2013-05-23 15:21:00,48.8,31.5,30.21,ENE,72,2.0,10.0,51,0.00,,CLR,0.00,VWS V12.07,2013-05-23 20:21:00,
2013-05-23 15:22:00,48.8,31.5,30.21,NE,51,7.0,10.0,51,0.00,,CLR,0.00,VWS V12.07,2013-05-23 20:22:00,
2013-05-23 15:24:00,48.8,30.0,30.21,WNW,298,4.0,4.0,48,0.00,,CLR,0.00,VWS V12.07,2013-05-23 20:24:00,
2013-05-23 15:26:00,48.9,30.6,30.21,West,276,0.0,4.0,49,0.00,,CLR,0.00,VWS V12.07,2013-05-23 20:26:00,
2013-05-23 15:27:00,49.1,30.8,30.21,WNW,294,1.0,4.0,49,0.00,,CLR,0.00,VWS V12.07,2013-05-23 20:27:00,
2013-05-23 15:30:00,49.4,30.0,30.21,NNE,18,2.0,10.0,47,0.00,,CLR,0.00,VWS V12.07,2013-05-23 20:30:00,
2013-05-23 15:31:00,49.5,30.1,30.21,WNW,297,0.0,10.0,47,0.00,,CLR,0.00,VWS V12.07,2013-05-23 20:31:00,
2013-05-23 15:32:00,49.5,30.1,30.21,NNE,29,2.0,10.0,47,0.00,,CLR,0.00,VWS V12.07,2013-05-23 20:32:00,
2013-05-23 15:35:00,49.4,30.0,30.21,NNE,12,5.0,5.0,47,0.00,,CLR,0.00,VWS V12.07,2013-05-23 20:35:00,
2013-05-23 15:37:00,49.2,30.4,30.21,NNE,21,4.0,7.0,48,0.00,,CLR,0.00,VWS V12.07,2013-05-23 20:37:00,
2013-05-23 15:38:00,48.9,30.1,30.21,NE,37,8.0,0.0,48,0.00,,CLR,0.00,VWS V12.07,2013-05-23 20:38:00,
2013-05-23 15:40:00,48.6,31.3,30.21,NE,36,1.0,11.0,51,0.00,,CLR,0.00,VWS V12.07,2013-05-23 20:40:00,
2013-05-23 15:42:00,48.6,31.8,30.21,SW,216,0.0,11.0,52,0.00,,CLR,0.00,VWS V12.07,2013-05-23 20:42:00,
2013-05-23 15:43:00,48.8,32.4,30.21,West,278,0.0,11.0,53,0.00,,CLR,0.00,VWS V12.07,2013-05-23 20:43:00,
2013-05-23 15:46:00,49.4,32.5,30.21,NE,50,0.0,4.0,52,0.00,,CLR,0.00,VWS V12.07,2013-05-23 20:46:00,
2013-05-23 15:47:00,49.4,31.6,30.21,WNW,282,2.0,10.0,50,0.00,,CLR,0.00,VWS V12.07,2013-05-23 20:47:00,
2013-05-23 15:48:00,49.5,31.1,30.21,NNW,345,2.0,10.0,49,0.00,,CLR,0.00,VWS V12.07,2013-05-23 20:48:00,
2013-05-23 15:49:00,49.5,31.6,30.21,NNW,345,0.0,10.0,50,0.00,,CLR,0.00,VWS V12.07,2013-05-23 20:49:00,
2013-05-23 15:51:00,49.6,31.2,30.21,NW,321,0.0,10.0,49,0.00,,CLR,0.00,VWS V12.07,2013-05-23 20:51:00,
2013-05-23 15:52:00,49.8,30.4,30.21,North,349,1.0,10.0,47,0.00,,CLR,0.00,VWS V12.07,2013-05-23 20:52:00,
2013-05-23 15:54:00,49.8,30.9,30.21,West,273,1.0,10.0,48,0.00,,CLR,0.00,VWS V12.07,2013-05-23 20:54:00,
2013-05-23 15:55:00,49.9,31.0,30.21,West,273,2.0,3.0,48,0.00,,CLR,0.00,VWS V12.07,2013-05-23 20:55:00,
2013-05-23 15:56:00,49.8,30.4,30.21,WNW,301,1.0,6.0,47,0.00,,CLR,0.00,VWS V12.07,2013-05-23 20:56:00,
2013-05-23 15:57:00,49.8,30.4,30.21,WNW,302,2.0,6.0,47,0.00,,CLR,0.00,VWS V12.07,2013-05-23 20:57:00,
2013-05-23 15:58:00,49.8,30.4,30.21,NE,51,3.0,6.0,47,0.00,,CLR,0.00,VWS V12.07,2013-05-23 20:58:00,
2013-05-23 16:00:00,49.5,29.6,30.21,NNE,27,3.0,10.0,46,0.00,,CLR,0.00,VWS V12.07,2013-05-23 21:00:00,
2013-05-23 16:01:00,49.2,29.9,30.21,NNW,345,4.0,10.0,47,0.00,,CLR,0.00,VWS V12.07,2013-05-23 21:01:00,
2013-05-23 16:02:00,49.1,29.2,30.21,North,6,4.0,10.0,46,0.00,,CLR,0.00,VWS V12.07,2013-05-23 21:02:00,
2013-05-23 16:03:00,48.9,29.0,30.21,NE,39,2.0,10.0,46,0.00,,CLR,0.00,VWS V12.07,2013-05-23 21:03:00,
2013-05-23 16:06:00,48.6,29.3,30.21,NNE,28,6.0,10.0,47,0.00,,CLR,0.00,VWS V12.07,2013-05-23 21:06:00,
2013-05-23 16:07:00,48.5,29.7,30.21,NNW,338,3.0,10.0,48,0.00,,CLR,0.00,VWS V12.07,2013-05-23 21:07:00,
2013-05-23 16:08:00,48.5,29.7,30.21,NW,310,0.0,10.0,48,0.00,,CLR,0.00,VWS V12.07,2013-05-23 21:08:00,
2013-05-23 16:11:00,48.8,31.0,30.21,NE,41,3.0,9.0,50,0.00,,CLR,0.00,VWS V12.07,2013-05-23 21:11:00,
2013-05-23 16:12:00,48.8,30.0,30.21,North,352,3.0,9.0,48,0.00,,CLR,0.00,VWS V12.07,2013-05-23 21:12:00,
2013-05-23 16:14:00,48.8,30.5,30.22,NW,309,3.0,9.0,49,0.00,,CLR,0.00,VWS V12.07,2013-05-23 21:14:00,
2013-05-23 16:16:00,48.6,29.8,30.22,North,358,6.0,7.0,48,0.00,,CLR,0.00,VWS V12.07,2013-05-23 21:16:00,
2013-05-23 16:17:00,48.6,30.3,30.22,NNW,335,3.0,7.0,49,0.00,,CLR,0.00,VWS V12.07,2013-05-23 21:17:00,
2013-05-23 16:18:00,48.6,29.3,30.22,NNE,13,3.0,7.0,47,0.00,,CLR,0.00,VWS V12.07,2013-05-23 21:18:00,
2013-05-23 16:20:00,48.6,30.3,30.22,West,267,2.0,7.0,49,0.00,,CLR,0.00,VWS V12.07,2013-05-23 21:20:00,
2013-05-23 16:21:00,48.6,30.3,30.22,NNW,343,1.0,7.0,49,0.00,,CLR,0.00,VWS V12.07,2013-05-23 21:21:00,
2013-05-23 16:23:00,48.8,30.0,30.22,NNE,23,3.0,10.0,48,0.00,,CLR,0.00,VWS V12.07,2013-05-23 21:23:00,
2013-05-23 16:25:00,48.8,30.0,30.22,NW,320,0.0,3.0,48,0.00,,CLR,0.00,VWS V12.07,2013-05-23 21:25:00,
2013-05-23 16:26:00,48.6,30.3,30.22,North,358,4.0,6.0,49,0.00,,CLR,0.00,VWS V12.07,2013-05-23 21:26:00,
2013-05-23 16:28:00,48.6,30.8,30.22,SSE,149,1.0,6.0,50,0.00,,CLR,0.00,VWS V12.07,2013-05-23 21:28:00,
2013-05-23 16:30:00,48.9,31.1,30.21,North,0,3.0,6.0,50,0.00,,CLR,0.00,VWS V12.07,2013-05-23 21:30:00,
2013-05-23 16:31:00,48.9,30.6,30.21,NNW,348,2.0,6.0,49,0.00,,CLR,0.00,VWS V12.07,2013-05-23 21:31:00,
2013-05-23 16:33:00,48.9,30.1,30.21,NW,323,0.0,7.0,48,0.00,,CLR,0.00,VWS V12.07,2013-05-23 21:33:00,
2013-05-23 16:36:00,48.9,30.6,30.21,NE,41,10.0,10.0,49,0.00,,CLR,0.00,VWS V12.07,2013-05-23 21:36:00,
2013-05-23 16:37:00,48.9,30.6,30.21,NE,40,3.0,11.0,49,0.00,,CLR,0.00,VWS V12.07,2013-05-23 21:37:00,
2013-05-23 16:38:00,48.8,29.5,30.21,NNW,348,0.0,11.0,47,0.00,,CLR,0.00,VWS V12.07,2013-05-23 21:38:00,
2013-05-23 16:39:00,48.8,29.5,30.21,West,269,3.0,11.0,47,0.00,,CLR,0.00,VWS V12.07,2013-05-23 21:39:00,
2013-05-23 16:41:00,48.8,30.5,30.21,North,358,4.0,11.0,49,0.00,,CLR,0.00,VWS V12.07,2013-05-23 21:41:00,
2013-05-23 16:42:00,48.8,30.0,30.21,North,358,2.0,11.0,48,0.00,,CLR,0.00,VWS V12.07,2013-05-23 21:42:00,
2013-05-23 16:43:00,48.8,29.5,30.22,ENE,69,0.0,11.0,47,0.00,,CLR,0.00,VWS V12.07,2013-05-23 21:43:00,
2013-05-23 16:44:00,48.8,29.5,30.22,ENE,69,0.0,11.0,47,0.00,,CLR,0.00,VWS V12.07,2013-05-23 21:44:00,
2013-05-23 16:46:00,48.9,29.6,30.22,West,268,1.0,4.0,47,0.00,,CLR,0.00,VWS V12.07,2013-05-23 21:46:00,
2013-05-23 16:47:00,48.9,30.1,30.22,West,280,4.0,4.0,48,0.00,,CLR,0.00,VWS V12.07,2013-05-23 21:47:00,
2013-05-23 16:49:00,48.9,29.6,30.22,East,95,1.0,5.0,47,0.00,,CLR,0.00,VWS V12.07,2013-05-23 21:49:00,
2013-05-23 16:52:00,49.1,30.3,30.22,NNE,24,0.0,5.0,48,0.00,,CLR,0.00,VWS V12.07,2013-05-23 21:52:00,
2013-05-23 16:54:00,48.9,29.6,30.22,NNE,13,2.0,10.0,47,0.00,,CLR,0.00,VWS V12.07,2013-05-23 21:54:00,
2013-05-23 16:55:00,48.9,30.6,30.22,NW,314,3.0,10.0,49,0.00,,CLR,0.00,VWS V12.07,2013-05-23 21:55:00,
2013-05-23 16:57:00,48.9,29.6,30.22,ENE,66,2.0,10.0,47,0.00,,CLR,0.00,VWS V12.07,2013-05-23 21:57:00,
2013-05-23 16:58:00,49.1,29.8,30.23,ENE,70,1.0,10.0,47,0.00,,CLR,0.00,VWS V12.07,2013-05-23 21:58:00,
2013-05-23 16:59:00,49.1,29.8,30.23,ENE,70,0.0,10.0,47,0.00,,CLR,0.00,VWS V12.07,2013-05-23 21:59:00,
2013-05-23 17:00:00,49.2,29.9,30.23,NNE,33,2.0,10.0,47,0.00,,CLR,0.00,VWS V12.07,2013-05-23 22:00:00,
2013-05-23 17:02:00,49.2,29.3,30.23,North,0,5.0,10.0,46,0.00,,CLR,0.00,VWS V12.07,2013-05-23 22:02:00,
2013-05-23 17:03:00,49.1,29.8,30.23,NE,39,3.0,10.0,47,0.00,,CLR,0.00,VWS V12.07,2013-05-23 22:03:00,
2013-05-23 17:05:00,49.1,29.8,30.23,East,85,5.0,5.0,47,0.00,,CLR,0.00,VWS V12.07,2013-05-23 22:05:00,
2013-05-23 17:07:00,48.9,30.1,30.23,NW,304,2.0,6.0,48,0.00,,CLR,0.00,VWS V12.07,2013-05-23 22:07:00,
2013-05-23 17:09:00,48.9,30.6,30.23,ENE,60,2.0,10.0,49,0.00,,CLR,0.00,VWS V12.07,2013-05-23 22:09:00,
2013-05-23 17:10:00,48.9,30.6,30.23,North,0,1.0,10.0,49,0.00,,CLR,0.00,VWS V12.07,2013-05-23 22:10:00,
2013-05-23 17:12:00,49.1,30.3,30.23,NNW,341,3.0,10.0,48,0.00,,CLR,0.00,VWS V12.07,2013-05-23 22:12:00,
2013-05-23 17:14:00,49.1,30.3,30.23,NW,304,0.0,10.0,48,0.00,,CLR,0.00,VWS V12.07,2013-05-23 22:14:00,
2013-05-23 17:15:00,49.1,29.8,30.23,NNE,16,6.0,6.0,47,0.00,,CLR,0.00,VWS V12.07,2013-05-23 22:15:00,
2013-05-23 17:16:00,48.9,29.6,30.23,NE,38,5.0,6.0,47,0.00,,CLR,0.00,VWS V12.07,2013-05-23 22:16:00,
2013-05-23 17:18:00,48.8,30.0,30.23,NNE,25,2.0,6.0,48,0.00,,CLR,0.00,VWS V12.07,2013-05-23 22:18:00,
2013-05-23 17:19:00,48.8,30.0,30.23,WNW,289,0.0,6.0,48,0.00,,CLR,0.00,VWS V12.07,2013-05-23 22:19:00,
2013-05-23 17:20:00,48.8,30.0,30.23,ENE,60,1.0,9.0,48,0.00,,CLR,0.00,VWS V12.07,2013-05-23 22:20:00,
2013-05-23 17:21:00,48.8,29.5,30.23,NNW,335,4.0,9.0,47,0.00,,CLR,0.00,VWS V12.07,2013-05-23 22:21:00,
2013-05-23 17:23:00,48.8,30.0,30.23,North,8,2.0,9.0,48,0.00,,CLR,0.00,VWS V12.07,2013-05-23 22:23:00,
2013-05-23 17:25:00,48.6,29.3,30.23,North,0,2.0,12.0,47,0.00,,CLR,0.00,VWS V12.07,2013-05-23 22:25:00,
2013-05-23 17:26:00,48.5,29.7,30.23,NE,43,0.0,12.0,48,0.00,,CLR,0.00,VWS V12.07,2013-05-23 22:26:00,
2013-05-23 17:28:00,48.5,29.7,30.23,NW,312,0.0,12.0,48,0.00,,CLR,0.00,VWS V12.07,2013-05-23 22:28:00,
2013-05-23 17:30:00,48.3,29.5,30.23,NNW,347,3.0,12.0,48,0.00,,CLR,0.00,VWS V12.07,2013-05-23 22:30:00,
2013-05-23 17:31:00,48.3,30.0,30.23,NNW,328,1.0,12.0,49,0.00,,CLR,0.00,VWS V12.07,2013-05-23 22:31:00,
2013-05-23 17:33:00,48.3,30.0,30.23,NNE,27,5.0,12.0,49,0.00,,CLR,0.00,VWS V12.07,2013-05-23 22:33:00,
2013-05-23 17:34:00,48.3,30.0,30.23,North,11,4.0,12.0,49,0.00,,CLR,0.00,VWS V12.07,2013-05-23 22:34:00,
2013-05-23 17:35:00,48.3,29.5,30.23,North,7,1.0,7.0,48,0.00,,CLR,0.00,VWS V12.07,2013-05-23 22:35:00,
2013-05-23 17:37:00,48.2,30.0,30.23,NNE,27,0.0,7.0,49,0.00,,CLR,0.00,VWS V12.07,2013-05-23 22:37:00,
2013-05-23 17:38:00,48.2,30.5,30.23,NW,312,2.0,7.0,50,0.00,,CLR,0.00,VWS V12.07,2013-05-23 22:38:00,
2013-05-23 17:40:00,48.3,30.0,30.23,NNE,17,3.0,11.0,49,0.00,,CLR,0.00,VWS V12.07,2013-05-23 22:40:00,
2013-05-23 17:42:00,48.2,30.0,30.23,NE,41,0.0,11.0,49,0.00,,CLR,0.00,VWS V12.07,2013-05-23 22:42:00,
2013-05-23 17:43:00,48.2,30.5,30.23,WNW,294,0.0,11.0,50,0.00,,CLR,0.00,VWS V12.07,2013-05-23 22:43:00,
2013-05-23 17:44:00,48.2,30.5,30.23,NW,307,1.0,11.0,50,0.00,,CLR,0.00,VWS V12.07,2013-05-23 22:44:00,
2013-05-23 17:45:00,48.2,30.0,30.23,NW,310,2.0,11.0,49,0.00,,CLR,0.00,VWS V12.07,2013-05-23 22:45:00,
2013-05-23 17:46:00,48.2,30.5,30.23,NNE,14,6.0,11.0,50,0.00,,CLR,0.00,VWS V12.07,2013-05-23 22:46:00,
2013-05-23 17:47:00,48.2,30.0,30.23,NE,41,6.0,11.0,49,0.00,,CLR,0.00,VWS V12.07,2013-05-23 22:47:00,
2013-05-23 17:49:00,48.2,30.5,30.23,NNE,25,0.0,11.0,50,0.00,,CLR,0.00,VWS V12.07,2013-05-23 22:49:00,
2013-05-23 17:51:00,48.0,29.8,30.23,NNE,29,3.0,11.0,49,0.00,,CLR,0.00,VWS V12.07,2013-05-23 22:51:00,
2013-05-23 17:52:00,48.0,29.8,30.23,North,7,1.0,11.0,49,0.00,,CLR,0.00,VWS V12.07,2013-05-23 22:52:00,
2013-05-23 17:54:00,47.9,30.2,30.23,North,0,0.0,11.0,50,0.00,,CLR,0.00,VWS V12.07,2013-05-23 22:54:00,
2013-05-23 17:56:00,47.9,29.7,30.23,NE,53,1.0,10.0,49,0.00,,CLR,0.00,VWS V12.07,2013-05-23 22:56:00,
2013-05-23 17:57:00,47.9,29.7,30.23,NE,53,0.0,10.0,49,0.00,,CLR,0.00,VWS V12.07,2013-05-23 22:57:00,
2013-05-23 17:59:00,47.9,29.7,30.23,ENE,60,0.0,10.0,49,0.00,,CLR,0.00,VWS V12.07,2013-05-23 22:59:00,
2013-05-23 18:00:00,47.9,29.7,30.23,North,358,2.0,10.0,49,0.00,,CLR,0.00,VWS V12.07,2013-05-23 23:00:00,
2013-05-23 18:01:00,47.9,30.2,30.23,NNW,333,4.0,10.0,50,0.00,,CLR,0.00,VWS V12.07,2013-05-23 23:01:00,
2013-05-23 18:02:00,47.9,29.7,30.23,NNW,344,0.0,10.0,49,0.00,,CLR,0.00,VWS V12.07,2013-05-23 23:02:00,
2013-05-23 18:05:00,47.7,29.5,30.23,NNW,347,3.0,5.0,49,0.00,,CLR,0.00,VWS V12.07,2013-05-23 23:05:00,
2013-05-23 18:06:00,47.7,29.0,30.23,North,351,1.0,10.0,48,0.00,,CLR,0.00,VWS V12.07,2013-05-23 23:06:00,
2013-05-23 18:07:00,47.7,29.0,30.23,North,0,2.0,10.0,48,0.00,,CLR,0.00,VWS V12.07,2013-05-23 23:07:00,
2013-05-23 18:10:00,47.7,29.5,30.23,NE,56,0.0,10.0,49,0.00,,CLR,0.00,VWS V12.07,2013-05-23 23:10:00,
2013-05-23 18:11:00,47.6,28.9,30.23,NNW,335,2.0,10.0,48,0.00,,CLR,0.00,VWS V12.07,2013-05-23 23:11:00,
2013-05-23 18:12:00,47.6,27.9,30.23,NW,307,1.0,10.0,46,0.00,,CLR,0.00,VWS V12.07,2013-05-23 23:12:00,
2013-05-23 18:15:00,47.6,27.9,30.24,ENE,58,2.0,10.0,46,0.00,,CLR,0.00,VWS V12.07,2013-05-23 23:15:00,
2013-05-23 18:17:00,47.6,27.9,30.24,NNW,331,2.0,10.0,46,0.00,,CLR,0.00,VWS V12.07,2013-05-23 23:17:00,
2013-05-23 18:21:00,47.6,28.4,30.24,WNW,291,3.0,10.0,47,0.00,,CLR,0.00,VWS V12.07,2013-05-23 23:21:00,
2013-05-23 18:22:00,47.6,27.9,30.24,North,358,3.0,10.0,46,0.00,,CLR,0.00,VWS V12.07,2013-05-23 23:22:00,
2013-05-23 18:23:00,47.4,28.2,30.24,NNW,339,2.0,10.0,47,0.00,,CLR,0.00,VWS V12.07,2013-05-23 23:23:00,
2013-05-23 18:27:00,47.3,28.1,30.24,NNE,13,7.0,8.0,47,0.00,,CLR,0.00,VWS V12.07,2013-05-23 23:27:00,
2013-05-23 18:28:00,47.3,27.6,30.24,NNE,20,5.0,8.0,46,0.00,,CLR,0.00,VWS V12.07,2013-05-23 23:28:00,
2013-05-23 18:32:00,47.1,27.9,30.25,NW,312,2.0,8.0,47,0.00,,CLR,0.00,VWS V12.07,2013-05-23 23:32:00,
2013-05-23 18:33:00,47.1,27.9,30.25,NNE,21,6.0,0.0,47,0.00,,CLR,0.00,VWS V12.07,2013-05-23 23:33:00,
2013-05-23 18:34:00,47.1,27.9,30.25,North,358,1.0,8.0,47,0.00,,CLR,0.00,VWS V12.07,2013-05-23 23:34:00,
2013-05-23 18:37:00,47.0,27.8,30.25,North,358,5.0,5.0,47,0.00,,CLR,0.00,VWS V12.07,2013-05-23 23:37:00,
2013-05-23 18:38:00,47.0,27.8,30.25,NNW,341,2.0,6.0,47,0.00,,CLR,0.00,VWS V12.07,2013-05-23 23:38:00,
2013-05-23 18:39:00,47.0,28.3,30.25,WNW,297,2.0,6.0,48,0.00,,CLR,0.00,VWS V12.07,2013-05-23 23:39:00,
2013-05-23 18:42:00,47.0,28.3,30.25,North,0,6.0,7.0,48,0.00,,CLR,0.00,VWS V12.07,2013-05-23 23:42:00,
2013-05-23 18:43:00,47.0,28.3,30.25,North,6,4.0,7.0,48,0.00,,CLR,0.00,VWS V12.07,2013-05-23 23:43:00,
2013-05-23 18:44:00,47.0,28.9,30.25,North,6,1.0,7.0,49,0.00,,CLR,0.00,VWS V12.07,2013-05-23 23:44:00,
2013-05-23 18:47:00,46.8,28.7,30.25,NNE,31,1.0,5.0,49,0.00,,CLR,0.00,VWS V12.07,2013-05-23 23:47:00,
2013-05-23 18:48:00,46.8,28.7,30.25,NNE,31,0.0,5.0,49,0.00,,CLR,0.00,VWS V12.07,2013-05-23 23:48:00,
2013-05-23 18:49:00,46.8,28.2,30.25,NNE,15,2.0,5.0,48,0.00,,CLR,0.00,VWS V12.07,2013-05-23 23:49:00,
2013-05-23 18:53:00,46.8,28.7,30.25,NNE,30,0.0,10.0,49,0.00,,CLR,0.00,VWS V12.07,2013-05-23 23:53:00,
2013-05-23 18:54:00,46.8,29.2,30.25,NNE,30,1.0,10.0,50,0.00,,CLR,0.00,VWS V12.07,2013-05-23 23:54:00,
2013-05-23 18:58:00,46.8,29.2,30.25,NW,314,0.0,4.0,50,0.00,,CLR,0.00,VWS V12.07,2013-05-23 23:58:00,
2013-05-23 18:59:00,46.8,28.7,30.25,NW,314,0.0,4.0,49,0.00,,CLR,0.00,VWS V12.07,2013-05-23 23:59:00,
2013-05-23 19:00:00,46.8,29.2,30.25,North,0,3.0,4.0,50,0.00,,CLR,0.00,VWS V12.07,2013-05-24 00:00:00,
2013-05-23 19:03:00,46.7,28.1,30.25,NE,37,3.0,6.0,48,0.00,,CLR,0.00,VWS V12.07,2013-05-24 00:03:00,
2013-05-23 19:04:00,46.7,28.1,30.25,NNW,347,1.0,6.0,48,0.00,,CLR,0.00,VWS V12.07,2013-05-24 00:04:00,
2013-05-23 19:05:00,46.7,28.1,30.25,NNE,30,3.0,6.0,48,0.00,,CLR,0.00,VWS V12.07,2013-05-24 00:05:00,
2013-05-23 19:07:00,46.5,27.9,30.25,NNW,345,1.0,6.0,48,0.00,,CLR,0.00,VWS V12.07,2013-05-24 00:07:00,
2013-05-23 19:09:00,46.5,27.9,30.25,North,358,0.0,5.0,48,0.00,,CLR,0.00,VWS V12.07,2013-05-24 00:09:00,
2013-05-23 19:10:00,46.4,28.3,30.25,North,358,2.0,5.0,49,0.00,,CLR,0.00,VWS V12.07,2013-05-24 00:10:00,
2013-05-23 19:12:00,46.4,28.3,30.25,WNW,287,2.0,6.0,49,0.00,,CLR,0.00,VWS V12.07,2013-05-24 00:12:00,
2013-05-23 19:14:00,46.2,27.6,30.26,NNW,330,1.0,6.0,48,0.00,,CLR,0.00,VWS V12.07,2013-05-24 00:14:00,
2013-05-23 19:15:00,46.2,28.1,30.26,North,0,0.0,6.0,49,0.00,,CLR,0.00,VWS V12.07,2013-05-24 00:15:00,
2013-05-23 19:16:00,46.2,28.6,30.26,North,0,0.0,6.0,50,0.00,,CLR,0.00,VWS V12.07,2013-05-24 00:16:00,
2013-05-23 19:17:00,46.2,28.1,30.26,NW,323,1.0,6.0,49,0.00,,CLR,0.00,VWS V12.07,2013-05-24 00:17:00,
2013-05-23 19:19:00,46.1,28.5,30.26,NW,323,0.0,6.0,50,0.00,,CLR,0.00,VWS V12.07,2013-05-24 00:19:00,
2013-05-23 19:20:00,46.1,28.5,30.26,NW,323,1.0,6.0,50,0.00,,CLR,0.00,VWS V12.07,2013-05-24 00:20:00,
2013-05-23 19:21:00,46.1,28.5,30.26,NE,40,4.0,6.0,50,0.00,,CLR,0.00,VWS V12.07,2013-05-24 00:21:00,
2013-05-23 19:22:00,46.1,28.0,30.26,NE,51,1.0,6.0,49,0.00,,CLR,0.00,VWS V12.07,2013-05-24 00:22:00,
2013-05-23 19:24:00,46.1,28.5,30.26,WNW,283,0.0,6.0,50,0.00,,CLR,0.00,VWS V12.07,2013-05-24 00:24:00,
2013-05-23 19:25:00,46.0,28.9,30.26,NNE,29,0.0,4.0,51,0.00,,CLR,0.00,VWS V12.07,2013-05-24 00:25:00,
2013-05-23 19:26:00,46.0,28.9,30.26,NNE,29,0.0,4.0,51,0.00,,CLR,0.00,VWS V12.07,2013-05-24 00:26:00,
2013-05-23 19:27:00,46.0,28.9,30.26,North,0,1.0,4.0,51,0.00,,CLR,0.00,VWS V12.07,2013-05-24 00:27:00,
2013-05-23 19:29:00,45.8,28.2,30.26,North,0,0.0,4.0,50,0.00,,CLR,0.00,VWS V12.07,2013-05-24 00:29:00,
2013-05-23 19:31:00,45.8,28.7,30.26,North,0,1.0,4.0,51,0.00,,CLR,0.00,VWS V12.07,2013-05-24 00:31:00,
2013-05-23 19:32:00,45.7,28.6,30.26,North,0,0.0,4.0,51,0.00,,CLR,0.00,VWS V12.07,2013-05-24 00:32:00,
2013-05-23 19:34:00,45.7,28.1,30.26,NW,315,1.0,4.0,50,0.00,,CLR,0.00,VWS V12.07,2013-05-24 00:34:00,
2013-05-23 19:36:00,45.7,28.1,30.26,NW,315,1.0,1.0,50,0.00,,CLR,0.00,VWS V12.07,2013-05-24 00:36:00,
2013-05-23 19:37:00,45.5,28.0,30.26,NNE,27,0.0,2.0,50,0.00,,CLR,0.00,VWS V12.07,2013-05-24 00:37:00,
2013-05-23 19:38:00,45.5,28.4,30.26,NNE,27,0.0,2.0,51,0.00,,CLR,0.00,VWS V12.07,2013-05-24 00:38:00,
2013-05-23 19:39:00,45.5,28.4,30.26,NNE,27,0.0,2.0,51,0.00,,CLR,0.00,VWS V12.07,2013-05-24 00:39:00,
2013-05-23 19:41:00,45.4,28.4,30.26,NNE,27,0.0,2.0,51,0.00,,CLR,0.00,VWS V12.07,2013-05-24 00:41:00,
2013-05-23 19:43:00,45.4,28.4,30.26,NNE,27,0.0,2.0,51,0.00,,CLR,0.00,VWS V12.07,2013-05-24 00:43:00,
2013-05-23 19:45:00,45.2,28.2,30.27,NNE,18,0.0,3.0,51,0.00,,CLR,0.00,VWS V12.07,2013-05-24 00:45:00,
2013-05-23 19:46:00,45.2,28.6,30.27,North,353,1.0,6.0,52,0.00,,CLR,0.00,VWS V12.07,2013-05-24 00:46:00,
2013-05-23 19:48:00,45.2,28.6,30.27,NNW,338,1.0,6.0,52,0.00,,CLR,0.00,VWS V12.07,2013-05-24 00:48:00,
2013-05-23 19:50:00,45.1,28.1,30.27,North,3,0.0,6.0,51,0.00,,CLR,0.00,VWS V12.07,2013-05-24 00:50:00,
2013-05-23 19:52:00,45.1,28.1,30.27,NE,35,0.0,6.0,51,0.00,,CLR,0.00,VWS V12.07,2013-05-24 00:52:00,
2013-05-23 19:53:00,45.1,28.5,30.27,NE,35,0.0,6.0,52,0.00,,CLR,0.00,VWS V12.07,2013-05-24 00:53:00,
2013-05-23 19:54:00,44.9,28.4,30.27,NE,35,0.0,6.0,52,0.00,,CLR,0.00,VWS V12.07,2013-05-24 00:54:00,
2013-05-23 19:55:00,44.9,28.4,30.27,NE,35,1.0,1.0,52,0.00,,CLR,0.00,VWS V12.07,2013-05-24 00:55:00,
2013-05-23 19:58:00,44.8,28.7,30.27,NE,35,0.0,1.0,53,0.00,,CLR,0.00,VWS V12.07,2013-05-24 00:58:00,
2013-05-23 19:59:00,44.8,28.3,30.26,NE,35,0.0,1.0,52,0.00,,CLR,0.00,VWS V12.07,2013-05-24 00:59:00,
2013-05-23 20:00:00,44.8,28.7,30.26,NNE,23,0.0,3.0,53,0.00,,CLR,0.00,VWS V12.07,2013-05-24 01:00:00,
2013-05-23 20:03:00,44.6,29.0,30.26,NNE,29,0.0,3.0,54,0.00,,CLR,0.00,VWS V12.07,2013-05-24 01:03:00,
2013-05-23 20:04:00,44.6,28.1,30.26,North,11,0.0,3.0,52,0.00,,CLR,0.00,VWS V12.07,2013-05-24 01:04:00,
2013-05-23 20:05:00,44.6,28.5,30.26,North,11,0.0,3.0,53,0.00,,CLR,0.00,VWS V12.07,2013-05-24 01:05:00,
2013-05-23 20:08:00,44.5,28.5,30.26,West,276,0.0,3.0,53,0.00,,CLR,0.00,VWS V12.07,2013-05-24 01:08:00,
2013-05-23 20:09:00,44.5,28.5,30.26,West,276,0.0,3.0,53,0.00,,CLR,0.00,VWS V12.07,2013-05-24 01:09:00,
2013-05-23 20:10:00,44.5,28.5,30.26,West,276,0.0,3.0,53,0.00,,CLR,0.00,VWS V12.07,2013-05-24 01:10:00,
2013-05-23 20:14:00,44.3,28.7,30.26,West,276,0.0,3.0,54,0.00,,CLR,0.00,VWS V12.07,2013-05-24 01:14:00,
2013-05-23 20:15:00,44.2,28.6,30.26,West,276,0.0,0.0,54,0.00,,CLR,0.00,VWS V12.07,2013-05-24 01:15:00,
2013-05-23 20:16:00,44.2,28.6,30.26,West,276,0.0,0.0,54,0.00,,CLR,0.00,VWS V12.07,2013-05-24 01:16:00,
2013-05-23 20:19:00,44.1,28.5,30.26,West,276,0.0,0.0,54,0.00,,CLR,0.00,VWS V12.07,2013-05-24 01:19:00,
2013-05-23 20:20:00,44.1,28.5,30.26,West,276,0.0,0.0,54,0.00,,CLR,0.00,VWS V12.07,2013-05-24 01:20:00,
2013-05-23 20:21:00,43.9,29.2,30.26,West,276,0.0,1.0,56,0.00,,CLR,0.00,VWS V12.07,2013-05-24 01:21:00,
2013-05-23 20:25:00,43.6,29.4,30.26,West,276,0.0,0.0,57,0.00,,CLR,0.00,VWS V12.07,2013-05-24 01:25:00,
2013-05-23 20:26:00,43.6,29.0,30.26,NNE,13,1.0,3.0,56,0.00,,CLR,0.00,VWS V12.07,2013-05-24 01:26:00,
2013-05-23 20:27:00,43.5,28.4,30.26,NNE,13,0.0,3.0,55,0.00,,CLR,0.00,VWS V12.07,2013-05-24 01:27:00,
2013-05-23 20:30:00,43.3,30.0,30.27,NNE,13,0.0,3.0,59,0.00,,CLR,0.00,VWS V12.07,2013-05-24 01:30:00,
2013-05-23 20:31:00,43.3,30.0,30.27,NNE,13,0.0,3.0,59,0.00,,CLR,0.00,VWS V12.07,2013-05-24 01:31:00,
2013-05-23 20:32:00,43.2,29.9,30.27,NNE,13,0.0,3.0,59,0.00,,CLR,0.00,VWS V12.07,2013-05-24 01:32:00,
2013-05-23 20:36:00,42.9,30.4,30.27,NNE,13,0.0,0.0,61,0.00,,CLR,0.00,VWS V12.07,2013-05-24 01:36:00,
2013-05-23 20:37:00,42.9,29.6,30.27,NNE,13,0.0,0.0,59,0.00,,CLR,0.00,VWS V12.07,2013-05-24 01:37:00,
2013-05-23 20:38:00,42.8,29.5,30.27,NNE,13,0.0,0.0,59,0.00,,CLR,0.00,VWS V12.07,2013-05-24 01:38:00,
2013-05-23 20:41:00,42.5,28.4,30.27,NNE,13,0.0,0.0,57,0.00,,CLR,0.00,VWS V12.07,2013-05-24 01:41:00,
2013-05-23 20:42:00,42.5,28.8,30.27,NNE,13,0.0,0.0,58,0.00,,CLR,0.00,VWS V12.07,2013-05-24 01:42:00,
2013-05-23 20:43:00,42.3,29.0,30.27,NNE,13,0.0,0.0,59,0.00,,CLR,0.00,VWS V12.07,2013-05-24 01:43:00,
2013-05-23 20:46:00,42.2,29.3,30.27,NNE,13,0.0,0.0,60,0.00,,CLR,0.00,VWS V12.07,2013-05-24 01:46:00,
2013-05-23 20:47:00,42.1,29.2,30.27,NNE,13,0.0,0.0,60,0.00,,CLR,0.00,VWS V12.07,2013-05-24 01:47:00,
2013-05-23 20:48:00,42.1,29.6,30.27,NNE,13,0.0,0.0,61,0.00,,CLR,0.00,VWS V12.07,2013-05-24 01:48:00,
2013-05-23 20:50:00,41.9,29.9,30.27,NNE,13,0.0,0.0,62,0.00,,CLR,0.00,VWS V12.07,2013-05-24 01:50:00,
2013-05-23 20:52:00,41.8,30.1,30.27,NNE,13,0.0,0.0,63,0.00,,CLR,0.00,VWS V12.07,2013-05-24 01:52:00,
2013-05-23 20:53:00,41.6,30.0,30.27,NNE,13,0.0,0.0,63,0.00,,CLR,0.00,VWS V12.07,2013-05-24 01:53:00,
2013-05-23 20:55:00,41.5,29.9,30.27,NNE,13,0.0,0.0,63,0.00,,CLR,0.00,VWS V12.07,2013-05-24 01:55:00,
2013-05-23 20:57:00,41.2,30.0,30.27,NNE,13,0.0,0.0,64,0.00,,CLR,0.00,VWS V12.07,2013-05-24 01:57:00,
2013-05-23 20:58:00,41.2,30.0,30.27,NNE,13,0.0,0.0,64,0.00,,CLR,0.00,VWS V12.07,2013-05-24 01:58:00,
2013-05-23 20:59:00,41.1,29.9,30.27,NNE,13,0.0,0.0,64,0.00,,CLR,0.00,VWS V12.07,2013-05-24 01:59:00,
2013-05-23 21:00:00,40.9,29.7,30.27,NNE,13,0.0,0.0,64,0.00,,CLR,0.00,VWS V12.07,2013-05-24 02:00:00,
2013-05-23 21:02:00,40.8,29.6,30.27,NNE,13,0.0,0.0,64,0.00,,CLR,0.00,VWS V12.07,2013-05-24 02:02:00,
2013-05-23 21:03:00,40.6,29.4,30.27,NNE,13,0.0,0.0,64,0.00,,CLR,0.00,VWS V12.07,2013-05-24 02:03:00,
2013-05-23 21:05:00,40.5,29.3,30.27,NNE,13,0.0,0.0,64,0.00,,CLR,0.00,VWS V12.07,2013-05-24 02:05:00,
2013-05-23 21:08:00,40.3,29.9,30.27,NNE,13,0.0,0.0,66,0.00,,CLR,0.00,VWS V12.07,2013-05-24 02:08:00,
2013-05-23 21:09:00,40.2,29.0,30.27,NNE,13,0.0,0.0,64,0.00,,CLR,0.00,VWS V12.07,2013-05-24 02:09:00,
2013-05-23 21:10:00,40.2,29.0,30.27,NNE,13,0.0,0.0,64,0.00,,CLR,0.00,VWS V12.07,2013-05-24 02:10:00,
2013-05-23 21:13:00,39.9,30.2,30.28,NNE,13,0.0,0.0,68,0.00,,CLR,0.00,VWS V12.07,2013-05-24 02:13:00,
2013-05-23 21:14:00,39.9,30.2,30.28,NNE,13,0.0,0.0,68,0.00,,CLR,0.00,VWS V12.07,2013-05-24 02:14:00,
2013-05-23 21:15:00,39.8,30.5,30.28,NNE,13,0.0,0.0,69,0.00,,CLR,0.00,VWS V12.07,2013-05-24 02:15:00,
2013-05-23 21:18:00,39.5,30.2,30.28,NNE,13,0.0,1.0,69,0.00,,CLR,0.00,VWS V12.07,2013-05-24 02:18:00,
2013-05-23 21:19:00,39.3,29.6,30.28,NNE,13,0.0,1.0,68,0.00,,CLR,0.00,VWS V12.07,2013-05-24 02:19:00,
2013-05-23 21:20:00,39.3,29.6,30.28,NNE,13,0.0,1.0,68,0.00,,CLR,0.00,VWS V12.07,2013-05-24 02:20:00,
2013-05-23 21:21:00,39.2,29.9,30.28,NNE,13,0.0,1.0,69,0.00,,CLR,0.00,VWS V12.07,2013-05-24 02:21:00,
2013-05-23 21:24:00,38.9,30.0,30.28,NNE,13,0.0,1.0,70,0.00,,CLR,0.00,VWS V12.07,2013-05-24 02:24:00,
2013-05-23 21:25:00,38.9,30.0,30.28,NNE,13,0.0,0.0,70,0.00,,CLR,0.00,VWS V12.07,2013-05-24 02:25:00,
2013-05-23 21:26:00,38.8,29.9,30.28,NNE,13,0.0,0.0,70,0.00,,CLR,0.00,VWS V12.07,2013-05-24 02:26:00,
2013-05-23 21:29:00,38.6,29.0,30.28,NNE,13,0.0,0.0,68,0.00,,CLR,0.00,VWS V12.07,2013-05-24 02:29:00,
2013-05-23 21:30:00,38.6,29.0,30.28,NNE,13,0.0,0.0,68,0.00,,CLR,0.00,VWS V12.07,2013-05-24 02:30:00,
2013-05-23 21:31:00,38.6,29.0,30.28,NNE,13,0.0,0.0,68,0.00,,CLR,0.00,VWS V12.07,2013-05-24 02:31:00,
2013-05-23 21:32:00,38.6,29.0,30.28,NNE,13,0.0,0.0,68,0.00,,CLR,0.00,VWS V12.07,2013-05-24 02:32:00,
2013-05-23 21:35:00,38.5,28.9,30.28,NNE,13,0.0,0.0,68,0.00,,CLR,0.00,VWS V12.07,2013-05-24 02:35:00,
2013-05-23 21:36:00,38.5,29.2,30.28,NNE,13,0.0,0.0,69,0.00,,CLR,0.00,VWS V12.07,2013-05-24 02:36:00,
2013-05-23 21:37:00,38.3,29.0,30.28,NNE,13,0.0,0.0,69,0.00,,CLR,0.00,VWS V12.07,2013-05-24 02:37:00,
2013-05-23 21:38:00,38.3,29.0,30.28,NNE,13,0.0,0.0,69,0.00,,CLR,0.00,VWS V12.07,2013-05-24 02:38:00,
2013-05-23 21:40:00,38.2,29.3,30.28,NNE,13,0.0,0.0,70,0.00,,CLR,0.00,VWS V12.07,2013-05-24 02:40:00,
2013-05-23 21:41:00,38.2,29.3,30.28,NNE,13,0.0,0.0,70,0.00,,CLR,0.00,VWS V12.07,2013-05-24 02:41:00,
2013-05-23 21:42:00,38.2,29.3,30.28,NNE,13,0.0,0.0,70,0.00,,CLR,0.00,VWS V12.07,2013-05-24 02:42:00,
2013-05-23 21:44:00,38.0,29.1,30.30,NNE,13,0.0,0.0,70,0.00,,CLR,0.00,VWS V12.07,2013-05-24 02:44:00,
2013-05-23 21:45:00,38.0,29.1,30.30,NNE,13,0.0,0.0,70,0.00,,CLR,0.00,VWS V12.07,2013-05-24 02:45:00,
2013-05-23 21:46:00,37.9,29.4,30.30,NNE,13,0.0,0.0,71,0.00,,CLR,0.00,VWS V12.07,2013-05-24 02:46:00,
2013-05-23 21:47:00,37.9,29.4,30.30,NNE,13,0.0,0.0,71,0.00,,CLR,0.00,VWS V12.07,2013-05-24 02:47:00,
2013-05-23 21:49:00,37.8,29.3,30.30,NNE,13,0.0,0.0,71,0.00,,CLR,0.00,VWS V12.07,2013-05-24 02:49:00,
2013-05-23 21:51:00,37.6,29.1,30.30,NNE,13,0.0,0.0,71,0.00,,CLR,0.00,VWS V12.07,2013-05-24 02:51:00,
2013-05-23 21:52:00,37.6,29.4,30.30,NNE,13,0.0,0.0,72,0.00,,CLR,0.00,VWS V12.07,2013-05-24 02:52:00,
2013-05-23 21:54:00,37.5,29.3,30.30,NNE,13,0.0,0.0,72,0.00,,CLR,0.00,VWS V12.07,2013-05-24 02:54:00,
2013-05-23 21:56:00,37.3,29.5,30.30,NNE,13,0.0,0.0,73,0.00,,CLR,0.00,VWS V12.07,2013-05-24 02:56:00,
2013-05-23 21:57:00,37.3,29.5,30.30,NNE,13,0.0,0.0,73,0.00,,CLR,0.00,VWS V12.07,2013-05-24 02:57:00,
2013-05-23 21:58:00,37.3,29.8,30.30,NNE,13,0.0,0.0,74,0.00,,CLR,0.00,VWS V12.07,2013-05-24 02:58:00,
2013-05-23 21:59:00,37.2,29.7,30.30,NNE,13,0.0,0.0,74,0.00,,CLR,0.00,VWS V12.07,2013-05-24 02:59:00,
2013-05-23 22:01:00,37.0,29.8,30.30,NNE,13,0.0,0.0,75,0.00,,CLR,0.00,VWS V12.07,2013-05-24 03:01:00,
2013-05-23 22:02:00,37.0,29.8,30.30,NNE,13,0.0,0.0,75,0.00,,CLR,0.00,VWS V12.07,2013-05-24 03:02:00,
2013-05-23 22:03:00,36.9,29.7,30.30,NNE,13,0.0,0.0,75,0.00,,CLR,0.00,VWS V12.07,2013-05-24 03:03:00,
2013-05-23 22:04:00,36.9,29.7,30.30,NNE,13,0.0,0.0,75,0.00,,CLR,0.00,VWS V12.07,2013-05-24 03:04:00,
2013-05-23 22:06:00,36.8,29.6,30.30,NNE,13,0.0,0.0,75,0.00,,CLR,0.00,VWS V12.07,2013-05-24 03:06:00,
2013-05-23 22:07:00,36.6,29.4,30.30,NNE,13,0.0,0.0,75,0.00,,CLR,0.00,VWS V12.07,2013-05-24 03:07:00,
2013-05-23 22:08:00,36.6,29.8,30.30,NNE,13,0.0,0.0,76,0.00,,CLR,0.00,VWS V12.07,2013-05-24 03:08:00,
2013-05-23 22:11:00,36.5,29.3,30.30,NNE,13,0.0,0.0,75,0.00,,CLR,0.00,VWS V12.07,2013-05-24 03:11:00,
2013-05-23 22:12:00,36.3,29.1,30.30,NNE,13,0.0,0.0,75,0.00,,CLR,0.00,VWS V12.07,2013-05-24 03:12:00,
2013-05-23 22:13:00,36.3,29.1,30.30,NNE,13,0.0,0.0,75,0.00,,CLR,0.00,VWS V12.07,2013-05-24 03:13:00,
2013-05-23 22:16:00,36.3,28.8,30.30,NNE,13,0.0,0.0,74,0.00,,CLR,0.00,VWS V12.07,2013-05-24 03:16:00,
2013-05-23 22:17:00,36.3,28.8,30.30,NNE,13,1.0,1.0,74,0.00,,CLR,0.00,VWS V12.07,2013-05-24 03:17:00,
2013-05-23 22:18:00,36.3,28.8,30.30,NNE,13,0.0,1.0,74,0.00,,CLR,0.00,VWS V12.07,2013-05-24 03:18:00,
2013-05-23 22:19:00,36.3,28.8,30.30,NNE,13,0.0,1.0,74,0.00,,CLR,0.00,VWS V12.07,2013-05-24 03:19:00,
2013-05-23 22:22:00,36.3,28.8,30.30,NNE,13,0.0,1.0,74,0.00,,CLR,0.00,VWS V12.07,2013-05-24 03:22:00,
2013-05-23 22:23:00,36.3,28.8,30.30,NNE,13,0.0,1.0,74,0.00,,CLR,0.00,VWS V12.07,2013-05-24 03:23:00,
2013-05-23 22:24:00,36.3,28.8,30.30,NNE,13,0.0,1.0,74,0.00,,CLR,0.00,VWS V12.07,2013-05-24 03:24:00,
2013-05-23 22:27:00,36.3,29.1,30.30,NNE,13,0.0,1.0,75,0.00,,CLR,0.00,VWS V12.07,2013-05-24 03:27:00,
2013-05-23 22:28:00,36.2,29.4,30.30,NNE,13,0.0,2.0,76,0.00,,CLR,0.00,VWS V12.07,2013-05-24 03:28:00,
2013-05-23 22:29:00,36.2,29.4,30.30,NNE,13,0.0,2.0,76,0.00,,CLR,0.00,VWS V12.07,2013-05-24 03:29:00,
2013-05-23 22:30:00,36.2,29.4,30.30,NNE,13,1.0,2.0,76,0.00,,CLR,0.00,VWS V12.07,2013-05-24 03:30:00,
2013-05-23 22:32:00,36.2,29.4,30.30,NNE,13,0.0,2.0,76,0.00,,CLR,0.00,VWS V12.07,2013-05-24 03:32:00,
2013-05-23 22:33:00,36.2,29.7,30.30,NNE,13,0.0,2.0,77,0.00,,CLR,0.00,VWS V12.07,2013-05-24 03:33:00,
2013-05-23 22:34:00,36.0,29.5,30.30,NNE,13,0.0,2.0,77,0.00,,CLR,0.00,VWS V12.07,2013-05-24 03:34:00,
2013-05-23 22:36:00,36.0,29.5,30.30,NNE,13,0.0,0.0,77,0.00,,CLR,0.00,VWS V12.07,2013-05-24 03:36:00,
2013-05-23 22:37:00,36.0,29.5,30.30,NNE,13,0.0,0.0,77,0.00,,CLR,0.00,VWS V12.07,2013-05-24 03:37:00,
2013-05-23 22:38:00,36.0,29.8,30.30,NNE,13,0.0,0.0,78,0.00,,CLR,0.00,VWS V12.07,2013-05-24 03:38:00,
2013-05-23 22:39:00,36.0,29.8,30.30,NNE,13,0.0,0.0,78,0.00,,CLR,0.00,VWS V12.07,2013-05-24 03:39:00,
2013-05-23 22:41:00,36.0,29.5,30.30,NNE,13,0.0,0.0,77,0.00,,CLR,0.00,VWS V12.07,2013-05-24 03:41:00,
2013-05-23 22:42:00,36.0,29.5,30.30,NNE,13,0.0,0.0,77,0.00,,CLR,0.00,VWS V12.07,2013-05-24 03:42:00,
2013-05-23 22:43:00,36.0,29.5,30.31,NNE,13,0.0,0.0,77,0.00,,CLR,0.00,VWS V12.07,2013-05-24 03:43:00,
2013-05-23 22:44:00,36.0,29.5,30.31,NNE,13,0.0,0.0,77,0.00,,CLR,0.00,VWS V12.07,2013-05-24 03:44:00,
2013-05-23 22:46:00,36.0,29.8,30.31,NNE,13,0.0,0.0,78,0.00,,CLR,0.00,VWS V12.07,2013-05-24 03:46:00,
2013-05-23 22:48:00,36.0,29.8,30.31,NNE,13,0.0,0.0,78,0.00,,CLR,0.00,VWS V12.07,2013-05-24 03:48:00,
2013-05-23 22:49:00,36.0,29.8,30.31,NNE,13,0.0,0.0,78,0.00,,CLR,0.00,VWS V12.07,2013-05-24 03:49:00,
2013-05-23 22:50:00,36.0,29.8,30.31,NNE,13,0.0,0.0,78,0.00,,CLR,0.00,VWS V12.07,2013-05-24 03:50:00,
2013-05-23 22:52:00,35.9,29.7,30.31,NNE,13,0.0,0.0,78,0.00,,CLR,0.00,VWS V12.07,2013-05-24 03:52:00,
2013-05-23 22:53:00,35.8,29.9,30.31,NNE,13,0.0,0.0,79,0.00,,CLR,0.00,VWS V12.07,2013-05-24 03:53:00,
2013-05-23 22:54:00,35.8,29.9,30.31,NNE,13,0.0,0.0,79,0.00,,CLR,0.00,VWS V12.07,2013-05-24 03:54:00,
2013-05-23 22:55:00,35.8,29.9,30.31,NNE,13,0.0,0.0,79,0.00,,CLR,0.00,VWS V12.07,2013-05-24 03:55:00,
2013-05-23 22:58:00,35.6,29.7,30.30,NNE,13,0.0,0.0,79,0.00,,CLR,0.00,VWS V12.07,2013-05-24 03:58:00,
2013-05-23 22:59:00,35.5,29.6,30.30,NNE,13,0.0,0.0,79,0.00,,CLR,0.00,VWS V12.07,2013-05-24 03:59:00,
2013-05-23 23:00:00,35.5,29.6,30.30,NNE,13,0.0,0.0,79,0.00,,CLR,0.00,VWS V12.07,2013-05-24 04:00:00,
2013-05-23 23:01:00,35.5,30.0,30.30,NNE,13,0.0,0.0,80,0.00,,CLR,0.00,VWS V12.07,2013-05-24 04:01:00,
2013-05-23 23:02:00,35.3,29.8,30.30,NNE,13,0.0,0.0,80,0.00,,CLR,0.00,VWS V12.07,2013-05-24 04:02:00,
2013-05-23 23:06:00,35.3,29.8,30.30,NNE,13,0.0,0.0,80,0.00,,CLR,0.00,VWS V12.07,2013-05-24 04:06:00,
2013-05-23 23:07:00,35.3,29.8,30.30,NNE,13,0.0,0.0,80,0.00,,CLR,0.00,VWS V12.07,2013-05-24 04:07:00,
2013-05-23 23:11:00,35.2,29.7,30.30,NNE,13,0.0,0.0,80,0.00,,CLR,0.00,VWS V12.07,2013-05-24 04:11:00,
2013-05-23 23:12:00,35.0,29.5,30.30,NNE,13,0.0,0.0,80,0.00,,CLR,0.00,VWS V12.07,2013-05-24 04:12:00,
2013-05-23 23:13:00,35.0,29.5,30.30,NNE,13,0.0,0.0,80,0.00,,CLR,0.00,VWS V12.07,2013-05-24 04:13:00,
2013-05-23 23:16:00,34.9,29.7,30.30,NNE,13,0.0,0.0,81,0.00,,CLR,0.00,VWS V12.07,2013-05-24 04:16:00,
2013-05-23 23:17:00,34.7,29.5,30.30,NNE,13,0.0,0.0,81,0.00,,CLR,0.00,VWS V12.07,2013-05-24 04:17:00,
2013-05-23 23:18:00,34.7,29.5,30.30,NNE,13,0.0,0.0,81,0.00,,CLR,0.00,VWS V12.07,2013-05-24 04:18:00,
2013-05-23 23:22:00,34.6,29.7,30.30,NNE,13,0.0,0.0,82,0.00,,CLR,0.00,VWS V12.07,2013-05-24 04:22:00,
2013-05-23 23:23:00,34.4,29.5,30.30,NNE,13,0.0,0.0,82,0.00,,CLR,0.00,VWS V12.07,2013-05-24 04:23:00,
2013-05-23 23:24:00,34.4,29.5,30.30,NNE,13,0.0,0.0,82,0.00,,CLR,0.00,VWS V12.07,2013-05-24 04:24:00,
2013-05-23 23:27:00,34.3,29.7,30.30,NNE,13,0.0,0.0,83,0.00,,CLR,0.00,VWS V12.07,2013-05-24 04:27:00,
2013-05-23 23:28:00,34.1,29.5,30.30,NNE,13,0.0,0.0,83,0.00,,CLR,0.00,VWS V12.07,2013-05-24 04:28:00,
2013-05-23 23:29:00,34.1,29.5,30.30,NNE,13,0.0,0.0,83,0.00,,CLR,0.00,VWS V12.07,2013-05-24 04:29:00,
2013-05-23 23:32:00,34.0,29.4,30.30,NNE,13,0.0,0.0,83,0.00,,CLR,0.00,VWS V12.07,2013-05-24 04:32:00,
2013-05-23 23:33:00,33.8,29.2,30.30,NNE,13,0.0,0.0,83,0.00,,CLR,0.00,VWS V12.07,2013-05-24 04:33:00,
2013-05-23 23:34:00,33.8,29.2,30.30,NNE,13,0.0,0.0,83,0.00,,CLR,0.00,VWS V12.07,2013-05-24 04:34:00,
2013-05-23 23:38:00,33.7,29.4,30.30,NNE,13,0.0,0.0,84,0.00,,CLR,0.00,VWS V12.07,2013-05-24 04:38:00,
2013-05-23 23:39:00,33.7,29.4,30.30,NNE,13,0.0,0.0,84,0.00,,CLR,0.00,VWS V12.07,2013-05-24 04:39:00,
2013-05-23 23:44:00,33.4,29.1,30.31,NNE,13,0.0,0.0,84,0.00,,CLR,0.00,VWS V12.07,2013-05-24 04:44:00,
2013-05-23 23:45:00,33.4,29.1,30.31,NNE,13,0.0,0.0,84,0.00,,CLR,0.00,VWS V12.07,2013-05-24 04:45:00,
2013-05-23 23:49:00,33.1,28.8,30.31,NNE,13,0.0,0.0,84,0.00,,CLR,0.00,VWS V12.07,2013-05-24 04:49:00,
2013-05-23 23:50:00,33.1,28.8,30.31,NNE,13,0.0,0.0,84,0.00,,CLR,0.00,VWS V12.07,2013-05-24 04:50:00,
2013-05-23 23:54:00,32.9,28.9,30.31,NNE,13,0.0,0.0,85,0.00,,CLR,0.00,VWS V12.07,2013-05-24 04:54:00,
2013-05-23 23:55:00,32.9,28.9,30.31,NNE,13,0.0,0.0,85,0.00,,CLR,0.00,VWS V12.07,2013-05-24 04:55:00,
2013-05-23 23:56:00,32.9,28.9,30.31,NNE,13,0.0,0.0,85,0.00,,CLR,0.00,VWS V12.07,2013-05-24 04:56:00,
2013-05-23 23:59:00,32.9,29.2,30.31,NNE,13,0.0,0.0,86,0.00,,CLR,0.00,VWS V12.07,2013-05-24 04:59:00,